Wetterdaten: Donnerstag, 15.12.2016
Datum Zeit Temp. A. Feuchte A. Luftdruck Regen Wind Richtung Richtung Sonnenschein ET UV Solar Taupunkt Windchill Windben Empfang
15.12.2016 00:00 3,1 C 97 % 1027,6 hPa 0,0 l/m 2,3 km/h (1 Bft) N-NO 16 0 min 0,000 mm 0,0 UV-I 0 W/m 2,7 C 3,1 C 6,4 km/h (2 Bft) 98,00 %
15.12.2016 00:02 3,1 C 97 % 1027,6 hPa 0,0 l/m 1,6 km/h (1 Bft) N 350 0 min 0,000 mm 0,0 UV-I 0 W/m 2,7 C 3,1 C 3,2 km/h (1 Bft) 95,35 %
15.12.2016 00:04 3,1 C 97 % 1027,6 hPa 0,0 l/m 0,9 km/h (0 Bft) N 10 0 min 0,000 mm 0,0 UV-I 0 W/m 2,7 C 3,1 C 4,8 km/h (1 Bft) 94,74 %
15.12.2016 00:06 3,1 C 97 % 1027,7 hPa 0,0 l/m 6,1 km/h (2 Bft) N 360 0 min 0,000 mm 0,0 UV-I 0 W/m 2,7 C 3,1 C 11,3 km/h (2 Bft) 100,00 %
15.12.2016 00:08 3,1 C 97 % 1027,7 hPa 0,0 l/m 4,5 km/h (1 Bft) N 5 0 min 0,000 mm 0,0 UV-I 0 W/m 2,7 C 3,1 C 8,0 km/h (2 Bft) 100,00 %
15.12.2016 00:10 3,1 C 97 % 1027,7 hPa 0,0 l/m 2,4 km/h (1 Bft) N 355 0 min 0,000 mm 0,0 UV-I 0 W/m 2,7 C 3,1 C 6,4 km/h (2 Bft) 100,00 %
15.12.2016 00:12 3,1 C 97 % 1027,7 hPa 0,0 l/m 0,5 km/h (0 Bft) N 5 0 min 0,000 mm 0,0 UV-I 0 W/m 2,7 C 3,1 C 3,2 km/h (1 Bft) 100,00 %
15.12.2016 00:14 3,1 C 97 % 1027,6 hPa 0,0 l/m 2,3 km/h (1 Bft) N-NO 21 0 min 0,000 mm 0,0 UV-I 0 W/m 2,7 C 3,1 C 6,4 km/h (2 Bft) 100,00 %
15.12.2016 00:16 3,1 C 97 % 1027,6 hPa 0,0 l/m 4,1 km/h (1 Bft) N-NO 26 0 min 0,000 mm 0,0 UV-I 0 W/m 2,7 C 3,1 C 6,4 km/h (2 Bft) 97,44 %
15.12.2016 00:18 3,1 C 97 % 1027,6 hPa 0,0 l/m 2,4 km/h (1 Bft) N-NO 20 0 min 0,000 mm 0,0 UV-I 0 W/m 2,7 C 3,1 C 4,8 km/h (1 Bft) 97,96 %
15.12.2016 00:20 3,1 C 97 % 1027,6 hPa 0,0 l/m 0,4 km/h (0 Bft) N-NO 19 0 min 0,000 mm 0,0 UV-I 0 W/m 2,7 C 3,1 C 1,6 km/h (1 Bft) 96,00 %
15.12.2016 00:22 3,1 C 97 % 1027,6 hPa 0,0 l/m 0,4 km/h (0 Bft) N 9 0 min 0,000 mm 0,0 UV-I 0 W/m 2,7 C 3,1 C 1,6 km/h (1 Bft) 100,00 %
15.12.2016 00:24 3,1 C 97 % 1027,6 hPa 0,0 l/m 0,4 km/h (0 Bft) N 9 0 min 0,000 mm 0,0 UV-I 0 W/m 2,7 C 3,1 C 3,2 km/h (1 Bft) 100,00 %
15.12.2016 00:26 3,1 C 97 % 1027,6 hPa 0,0 l/m 1,1 km/h (1 Bft) N-NW 348 0 min 0,000 mm 0,0 UV-I 0 W/m 2,7 C 3,1 C 4,8 km/h (1 Bft) 100,00 %
15.12.2016 00:28 3,1 C 97 % 1027,6 hPa 0,0 l/m 1,2 km/h (1 Bft) N-NO 22 0 min 0,000 mm 0,0 UV-I 0 W/m 2,7 C 3,1 C 3,2 km/h (1 Bft) 95,74 %
15.12.2016 00:30 3,0 C 97 % 1027,6 hPa 0,0 l/m 1,0 km/h (0 Bft) N 355 0 min 0,000 mm 0,0 UV-I 0 W/m 2,6 C 3,0 C 3,2 km/h (1 Bft) 100,00 %
15.12.2016 00:32 3,0 C 97 % 1027,6 hPa 0,0 l/m 0,3 km/h (0 Bft) N 355 0 min 0,000 mm 0,0 UV-I 0 W/m 2,6 C 3,0 C 1,6 km/h (1 Bft) 100,00 %
15.12.2016 00:34 3,0 C 97 % 1027,7 hPa 0,0 l/m 0,9 km/h (0 Bft) N 355 0 min 0,000 mm 0,0 UV-I 0 W/m 2,6 C 3,0 C 3,2 km/h (1 Bft) 98,00 %
15.12.2016 00:36 3,0 C 97 % 1027,6 hPa 0,0 l/m 0,3 km/h (0 Bft) N 355 0 min 0,000 mm 0,0 UV-I 0 W/m 2,6 C 3,0 C 1,6 km/h (1 Bft) 100,00 %
15.12.2016 00:38 3,0 C 97 % 1027,7 hPa 0,0 l/m 0,0 km/h (0 Bft) N 355 0 min 0,000 mm 0,0 UV-I 0 W/m 2,6 C 3,0 C 0,0 km/h (0 Bft) 100,00 %
15.12.2016 00:40 3,0 C 97 % 1027,6 hPa 0,0 l/m 0,3 km/h (0 Bft) N 355 0 min 0,000 mm 0,0 UV-I 0 W/m 2,6 C 3,0 C 1,6 km/h (1 Bft) 100,00 %
15.12.2016 00:42 3,0 C 97 % 1027,7 hPa 0,0 l/m 0,1 km/h (0 Bft) N 355 0 min 0,000 mm 0,0 UV-I 0 W/m 2,6 C 3,0 C 1,6 km/h (1 Bft) 100,00 %
15.12.2016 00:44 3,0 C 97 % 1027,6 hPa 0,0 l/m 0,7 km/h (0 Bft) N 355 0 min 0,000 mm 0,0 UV-I 0 W/m 2,6 C 3,0 C 1,6 km/h (1 Bft) 100,00 %
15.12.2016 00:46 3,0 C 97 % 1027,7 hPa 0,0 l/m 0,6 km/h (0 Bft) N 355 0 min 0,000 mm 0,0 UV-I 0 W/m 2,6 C 3,0 C 1,6 km/h (1 Bft) 100,00 %
15.12.2016 00:48 3,0 C 97 % 1027,7 hPa 0,0 l/m 0,0 km/h (0 Bft) N 355 0 min 0,000 mm 0,0 UV-I 0 W/m 2,6 C 3,0 C 0,0 km/h (0 Bft) 98,46 %
15.12.2016 00:50 2,9 C 97 % 1027,7 hPa 0,0 l/m 0,6 km/h (0 Bft) N 355 0 min 0,000 mm 0,0 UV-I 0 W/m 2,5 C 2,9 C 3,2 km/h (1 Bft) 100,00 %
15.12.2016 00:52 2,9 C 97 % 1027,6 hPa 0,0 l/m 2,7 km/h (1 Bft) N 355 0 min 0,000 mm 0,0 UV-I 0 W/m 2,5 C 2,9 C 3,2 km/h (1 Bft) 100,00 %
15.12.2016 00:54 3,0 C 97 % 1027,7 hPa 0,0 l/m 1,0 km/h (0 Bft) N 355 0 min 0,000 mm 0,0 UV-I 0 W/m 2,6 C 3,0 C 3,2 km/h (1 Bft) 100,00 %
15.12.2016 00:56 3,0 C 97 % 1027,7 hPa 0,0 l/m 0,7 km/h (0 Bft) N 355 0 min 0,000 mm 0,0 UV-I 0 W/m 2,6 C 3,0 C 3,2 km/h (1 Bft) 96,88 %
15.12.2016 00:58 3,0 C 97 % 1027,7 hPa 0,0 l/m 0,0 km/h (0 Bft) N 355 0 min 0,000 mm 0,0 UV-I 0 W/m 2,6 C 3,0 C 0,0 km/h (0 Bft) 97,22 %
15.12.2016 01:00 3,0 C 97 % 1027,7 hPa 0,0 l/m 0,0 km/h (0 Bft) N 355 0 min 0,000 mm 0,0 UV-I 0 W/m 2,6 C 3,0 C 0,0 km/h (0 Bft) 98,00 %
15.12.2016 01:02 3,0 C 97 % 1027,7 hPa 0,0 l/m 0,3 km/h (0 Bft) N 355 0 min 0,000 mm 0,0 UV-I 0 W/m 2,6 C 3,0 C 1,6 km/h (1 Bft) 98,08 %
15.12.2016 01:04 3,0 C 97 % 1027,7 hPa 0,0 l/m 2,5 km/h (1 Bft) N 355 0 min 0,000 mm 0,0 UV-I 0 W/m 2,6 C 3,0 C 3,2 km/h (1 Bft) 97,22 %
15.12.2016 01:06 3,0 C 97 % 1027,6 hPa 0,0 l/m 3,2 km/h (1 Bft) SW 236 0 min 0,000 mm 0,0 UV-I 0 W/m 2,6 C 3,0 C 4,8 km/h (1 Bft) 96,43 %
15.12.2016 01:08 3,0 C 97 % 1027,7 hPa 0,0 l/m 1,6 km/h (1 Bft) SW 236 0 min 0,000 mm 0,0 UV-I 0 W/m 2,6 C 3,0 C 3,2 km/h (1 Bft) 97,87 %
15.12.2016 01:10 3,0 C 97 % 1027,7 hPa 0,0 l/m 3,2 km/h (1 Bft) W-SW 240 0 min 0,000 mm 0,0 UV-I 0 W/m 2,6 C 3,0 C 6,4 km/h (2 Bft) 97,87 %
15.12.2016 01:12 3,0 C 97 % 1027,7 hPa 0,0 l/m 2,4 km/h (1 Bft) W-SW 252 0 min 0,000 mm 0,0 UV-I 0 W/m 2,6 C 3,0 C 4,8 km/h (1 Bft) 98,00 %
15.12.2016 01:14 3,0 C 97 % 1027,7 hPa 0,0 l/m 2,2 km/h (1 Bft) W-SW 252 0 min 0,000 mm 0,0 UV-I 0 W/m 2,6 C 3,0 C 3,2 km/h (1 Bft) 95,74 %
15.12.2016 01:16 3,0 C 97 % 1027,7 hPa 0,0 l/m 4,5 km/h (1 Bft) S-SW 210 0 min 0,000 mm 0,0 UV-I 0 W/m 2,6 C 3,0 C 6,4 km/h (2 Bft) 97,87 %
15.12.2016 01:18 3,0 C 97 % 1027,7 hPa 0,0 l/m 4,0 km/h (1 Bft) SW 234 0 min 0,000 mm 0,0 UV-I 0 W/m 2,6 C 3,0 C 6,4 km/h (2 Bft) 97,56 %
15.12.2016 01:20 3,0 C 97 % 1027,7 hPa 0,0 l/m 4,0 km/h (1 Bft) SW 234 0 min 0,000 mm 0,0 UV-I 0 W/m 2,6 C 3,0 C 4,8 km/h (1 Bft) 98,11 %
15.12.2016 01:22 3,0 C 97 % 1027,7 hPa 0,0 l/m 3,8 km/h (1 Bft) W-SW 257 0 min 0,000 mm 0,0 UV-I 0 W/m 2,6 C 3,0 C 6,4 km/h (2 Bft) 97,37 %
15.12.2016 01:24 3,0 C 97 % 1027,7 hPa 0,0 l/m 3,1 km/h (1 Bft) SW 227 0 min 0,000 mm 0,0 UV-I 0 W/m 2,6 C 3,0 C 4,8 km/h (1 Bft) 96,00 %
15.12.2016 01:26 3,0 C 97 % 1027,7 hPa 0,0 l/m 3,8 km/h (1 Bft) SW 223 0 min 0,000 mm 0,0 UV-I 0 W/m 2,6 C 3,0 C 6,4 km/h (2 Bft) 94,00 %
15.12.2016 01:28 3,0 C 97 % 1027,7 hPa 0,0 l/m 3,0 km/h (1 Bft) SW 223 0 min 0,000 mm 0,0 UV-I 0 W/m 2,6 C 3,0 C 4,8 km/h (1 Bft) 97,87 %
15.12.2016 01:30 3,0 C 97 % 1027,7 hPa 0,0 l/m 3,9 km/h (1 Bft) SW 215 0 min 0,000 mm 0,0 UV-I 0 W/m 2,6 C 3,0 C 6,4 km/h (2 Bft) 97,56 %
15.12.2016 01:32 3,0 C 97 % 1027,7 hPa 0,0 l/m 2,5 km/h (1 Bft) W-SW 243 0 min 0,000 mm 0,0 UV-I 0 W/m 2,6 C 3,0 C 4,8 km/h (1 Bft) 100,00 %
15.12.2016 01:34 2,9 C 97 % 1027,6 hPa 0,0 l/m 4,1 km/h (1 Bft) W-SW 246 0 min 0,000 mm 0,0 UV-I 0 W/m 2,5 C 2,9 C 6,4 km/h (2 Bft) 100,00 %
15.12.2016 01:36 2,9 C 97 % 1027,7 hPa 0,0 l/m 3,3 km/h (1 Bft) SW 225 0 min 0,000 mm 0,0 UV-I 0 W/m 2,5 C 2,9 C 4,8 km/h (1 Bft) 100,00 %
15.12.2016 01:38 3,0 C 97 % 1027,7 hPa 0,0 l/m 2,3 km/h (1 Bft) SW 225 0 min 0,000 mm 0,0 UV-I 0 W/m 2,6 C 3,0 C 4,8 km/h (1 Bft) 100,00 %
15.12.2016 01:40 2,9 C 97 % 1027,6 hPa 0,0 l/m 2,9 km/h (1 Bft) SW 216 0 min 0,000 mm 0,0 UV-I 0 W/m 2,5 C 2,9 C 4,8 km/h (1 Bft) 96,00 %
15.12.2016 01:42 2,9 C 97 % 1027,7 hPa 0,0 l/m 3,7 km/h (1 Bft) SW 216 0 min 0,000 mm 0,0 UV-I 0 W/m 2,5 C 2,9 C 6,4 km/h (2 Bft) 100,00 %
15.12.2016 01:44 2,9 C 97 % 1027,6 hPa 0,0 l/m 2,7 km/h (1 Bft) SW 216 0 min 0,000 mm 0,0 UV-I 0 W/m 2,5 C 2,9 C 4,8 km/h (1 Bft) 98,00 %
15.12.2016 01:46 3,0 C 97 % 1027,7 hPa 0,0 l/m 1,4 km/h (1 Bft) SW 216 0 min 0,000 mm 0,0 UV-I 0 W/m 2,6 C 3,0 C 4,8 km/h (1 Bft) 100,00 %
15.12.2016 01:48 2,9 C 97 % 1027,7 hPa 0,0 l/m 0,7 km/h (0 Bft) SW 216 0 min 0,000 mm 0,0 UV-I 0 W/m 2,5 C 2,9 C 1,6 km/h (1 Bft) 100,00 %
15.12.2016 01:50 3,0 C 97 % 1027,7 hPa 0,0 l/m 0,9 km/h (0 Bft) SW 216 0 min 0,000 mm 0,0 UV-I 0 W/m 2,6 C 3,0 C 1,6 km/h (1 Bft) 100,00 %
15.12.2016 01:52 3,0 C 97 % 1027,6 hPa 0,0 l/m 1,2 km/h (1 Bft) SW 216 0 min 0,000 mm 0,0 UV-I 0 W/m 2,6 C 3,0 C 3,2 km/h (1 Bft) 100,00 %
15.12.2016 01:54 3,0 C 97 % 1027,7 hPa 0,0 l/m 1,6 km/h (1 Bft) SW 216 0 min 0,000 mm 0,0 UV-I 0 W/m 2,6 C 3,0 C 3,2 km/h (1 Bft) 100,00 %
15.12.2016 01:56 3,0 C 97 % 1027,7 hPa 0,0 l/m 2,2 km/h (1 Bft) SW 216 0 min 0,000 mm 0,0 UV-I 0 W/m 2,6 C 3,0 C 3,2 km/h (1 Bft) 100,00 %
15.12.2016 01:58 3,0 C 97 % 1027,6 hPa 0,0 l/m 3,2 km/h (1 Bft) S-SW 211 0 min 0,000 mm 0,0 UV-I 0 W/m 2,6 C 3,0 C 6,4 km/h (2 Bft) 97,73 %
15.12.2016 02:00 3,0 C 97 % 1027,6 hPa 0,0 l/m 2,9 km/h (1 Bft) S-SW 211 0 min 0,000 mm 0,0 UV-I 0 W/m 2,6 C 3,0 C 4,8 km/h (1 Bft) 97,87 %
15.12.2016 02:02 3,0 C 97 % 1027,6 hPa 0,0 l/m 3,8 km/h (1 Bft) S-SW 211 0 min 0,000 mm 0,0 UV-I 0 W/m 2,6 C 3,0 C 6,4 km/h (2 Bft) 100,00 %
15.12.2016 02:04 3,0 C 97 % 1027,7 hPa 0,0 l/m 3,6 km/h (1 Bft) S-SW 211 0 min 0,000 mm 0,0 UV-I 0 W/m 2,6 C 3,0 C 4,8 km/h (1 Bft) 98,11 %
15.12.2016 02:06 3,0 C 97 % 1027,7 hPa 0,0 l/m 3,9 km/h (1 Bft) S-SW 211 0 min 0,000 mm 0,0 UV-I 0 W/m 2,6 C 3,0 C 4,8 km/h (1 Bft) 100,00 %
15.12.2016 02:08 3,0 C 97 % 1027,7 hPa 0,0 l/m 3,9 km/h (1 Bft) S-SW 211 0 min 0,000 mm 0,0 UV-I 0 W/m 2,6 C 3,0 C 4,8 km/h (1 Bft) 100,00 %
15.12.2016 02:10 3,0 C 97 % 1027,7 hPa 0,0 l/m 3,8 km/h (1 Bft) S-SW 211 0 min 0,000 mm 0,0 UV-I 0 W/m 2,6 C 3,0 C 6,4 km/h (2 Bft) 97,87 %
15.12.2016 02:12 2,9 C 97 % 1027,8 hPa 0,0 l/m 3,7 km/h (1 Bft) S-SW 211 0 min 0,000 mm 0,0 UV-I 0 W/m 2,5 C 2,9 C 6,4 km/h (2 Bft) 98,21 %
15.12.2016 02:14 2,9 C 97 % 1027,7 hPa 0,0 l/m 3,5 km/h (1 Bft) S-SW 211 0 min 0,000 mm 0,0 UV-I 0 W/m 2,5 C 2,9 C 4,8 km/h (1 Bft) 100,00 %
15.12.2016 02:16 3,0 C 97 % 1027,8 hPa 0,0 l/m 3,6 km/h (1 Bft) SW 230 0 min 0,000 mm 0,0 UV-I 0 W/m 2,6 C 3,0 C 4,8 km/h (1 Bft) 98,31 %
15.12.2016 02:18 2,9 C 97 % 1027,8 hPa 0,0 l/m 2,9 km/h (1 Bft) SW 230 0 min 0,000 mm 0,0 UV-I 0 W/m 2,5 C 2,9 C 4,8 km/h (1 Bft) 100,00 %
15.12.2016 02:20 3,0 C 97 % 1027,8 hPa 0,0 l/m 2,1 km/h (1 Bft) SW 230 0 min 0,000 mm 0,0 UV-I 0 W/m 2,6 C 3,0 C 3,2 km/h (1 Bft) 100,00 %
15.12.2016 02:22 2,9 C 97 % 1027,8 hPa 0,0 l/m 1,4 km/h (1 Bft) SW 230 0 min 0,000 mm 0,0 UV-I 0 W/m 2,5 C 2,9 C 3,2 km/h (1 Bft) 100,00 %
15.12.2016 02:24 2,9 C 97 % 1027,8 hPa 0,0 l/m 0,0 km/h (0 Bft) SW 230 0 min 0,000 mm 0,0 UV-I 0 W/m 2,5 C 2,9 C 1,6 km/h (1 Bft) 100,00 %
15.12.2016 02:26 2,9 C 97 % 1027,8 hPa 0,0 l/m 1,5 km/h (1 Bft) SW 230 0 min 0,000 mm 0,0 UV-I 0 W/m 2,5 C 2,9 C 3,2 km/h (1 Bft) 98,11 %
15.12.2016 02:28 2,9 C 97 % 1027,8 hPa 0,0 l/m 3,4 km/h (1 Bft) SW 230 0 min 0,000 mm 0,0 UV-I 0 W/m 2,5 C 2,9 C 4,8 km/h (1 Bft) 100,00 %
15.12.2016 02:30 2,9 C 97 % 1027,8 hPa 0,0 l/m 4,5 km/h (1 Bft) SW 230 0 min 0,000 mm 0,0 UV-I 0 W/m 2,5 C 2,9 C 6,4 km/h (2 Bft) 100,00 %
15.12.2016 02:32 2,9 C 97 % 1027,8 hPa 0,0 l/m 2,7 km/h (1 Bft) SW 230 0 min 0,000 mm 0,0 UV-I 0 W/m 2,5 C 2,9 C 4,8 km/h (1 Bft) 100,00 %
15.12.2016 02:34 2,9 C 97 % 1027,9 hPa 0,0 l/m 1,0 km/h (0 Bft) SW 230 0 min 0,000 mm 0,0 UV-I 0 W/m 2,5 C 2,9 C 3,2 km/h (1 Bft) 100,00 %
15.12.2016 02:36 2,9 C 97 % 1027,9 hPa 0,0 l/m 0,1 km/h (0 Bft) SW 230 0 min 0,000 mm 0,0 UV-I 0 W/m 2,5 C 2,9 C 1,6 km/h (1 Bft) 100,00 %
15.12.2016 02:38 2,9 C 97 % 1027,8 hPa 0,0 l/m 0,0 km/h (0 Bft) SW 230 0 min 0,000 mm 0,0 UV-I 0 W/m 2,5 C 2,9 C 1,6 km/h (1 Bft) 100,00 %
15.12.2016 02:40 2,9 C 98 % 1027,8 hPa 0,0 l/m 1,1 km/h (1 Bft) SW 230 0 min 0,000 mm 0,0 UV-I 0 W/m 2,6 C 2,9 C 3,2 km/h (1 Bft) 100,00 %
15.12.2016 02:42 2,9 C 98 % 1027,8 hPa 0,0 l/m 0,0 km/h (0 Bft) SW 230 0 min 0,000 mm 0,0 UV-I 0 W/m 2,6 C 2,9 C 0,0 km/h (0 Bft) 100,00 %
15.12.2016 02:44 2,8 C 98 % 1027,9 hPa 0,0 l/m 0,0 km/h (0 Bft) SW 230 0 min 0,000 mm 0,0 UV-I 0 W/m 2,5 C 2,8 C 0,0 km/h (0 Bft) 100,00 %
15.12.2016 02:46 2,8 C 98 % 1027,9 hPa 0,0 l/m 0,0 km/h (0 Bft) SW 230 0 min 0,000 mm 0,0 UV-I 0 W/m 2,5 C 2,8 C 0,0 km/h (0 Bft) 100,00 %
15.12.2016 02:48 2,8 C 98 % 1027,8 hPa 0,0 l/m 0,0 km/h (0 Bft) SW 230 0 min 0,000 mm 0,0 UV-I 0 W/m 2,5 C 2,8 C 0,0 km/h (0 Bft) 100,00 %
15.12.2016 02:50 2,8 C 98 % 1027,8 hPa 0,0 l/m 1,0 km/h (0 Bft) SW 230 0 min 0,000 mm 0,0 UV-I 0 W/m 2,5 C 2,8 C 3,2 km/h (1 Bft) 100,00 %
15.12.2016 02:52 2,8 C 98 % 1027,8 hPa 0,0 l/m 0,2 km/h (0 Bft) SW 230 0 min 0,000 mm 0,0 UV-I 0 W/m 2,5 C 2,8 C 1,6 km/h (1 Bft) 100,00 %
15.12.2016 02:54 2,8 C 98 % 1027,8 hPa 0,0 l/m 0,6 km/h (0 Bft) SW 230 0 min 0,000 mm 0,0 UV-I 0 W/m 2,5 C 2,8 C 1,6 km/h (1 Bft) 98,00 %
15.12.2016 02:56 2,8 C 98 % 1027,8 hPa 0,0 l/m 0,4 km/h (0 Bft) SW 230 0 min 0,000 mm 0,0 UV-I 0 W/m 2,5 C 2,8 C 1,6 km/h (1 Bft) 98,11 %
15.12.2016 02:58 2,8 C 98 % 1027,9 hPa 0,0 l/m 0,0 km/h (0 Bft) SW 230 0 min 0,000 mm 0,0 UV-I 0 W/m 2,5 C 2,8 C 0,0 km/h (0 Bft) 97,22 %
15.12.2016 03:00 2,8 C 98 % 1027,9 hPa 0,0 l/m 0,0 km/h (0 Bft) SW 230 0 min 0,000 mm 0,0 UV-I 0 W/m 2,5 C 2,8 C 0,0 km/h (0 Bft) 96,36 %
15.12.2016 03:02 2,8 C 98 % 1027,8 hPa 0,0 l/m 0,0 km/h (0 Bft) SW 230 0 min 0,000 mm 0,0 UV-I 0 W/m 2,5 C 2,8 C 0,0 km/h (0 Bft) 97,87 %
15.12.2016 03:04 2,8 C 98 % 1027,9 hPa 0,0 l/m 0,0 km/h (0 Bft) SW 230 0 min 0,000 mm 0,0 UV-I 0 W/m 2,5 C 2,8 C 1,6 km/h (1 Bft) 93,75 %
15.12.2016 03:06 2,8 C 98 % 1027,9 hPa 0,0 l/m 0,0 km/h (0 Bft) SW 230 0 min 0,000 mm 0,0 UV-I 0 W/m 2,5 C 2,8 C 0,0 km/h (0 Bft) 95,74 %
15.12.2016 03:08 2,8 C 98 % 1027,9 hPa 0,0 l/m 0,0 km/h (0 Bft) SW 230 0 min 0,000 mm 0,0 UV-I 0 W/m 2,5 C 2,8 C 1,6 km/h (1 Bft) 97,87 %
15.12.2016 03:10 2,8 C 98 % 1027,9 hPa 0,0 l/m 0,2 km/h (0 Bft) SW 230 0 min 0,000 mm 0,0 UV-I 0 W/m 2,5 C 2,8 C 1,6 km/h (1 Bft) 97,87 %
15.12.2016 03:12 2,8 C 98 % 1027,9 hPa 0,0 l/m 0,2 km/h (0 Bft) SW 230 0 min 0,000 mm 0,0 UV-I 0 W/m 2,5 C 2,8 C 1,6 km/h (1 Bft) 97,56 %
15.12.2016 03:14 2,8 C 98 % 1027,9 hPa 0,0 l/m 0,4 km/h (0 Bft) SW 230 0 min 0,000 mm 0,0 UV-I 0 W/m 2,5 C 2,8 C 1,6 km/h (1 Bft) 96,23 %
15.12.2016 03:16 2,8 C 98 % 1027,9 hPa 0,0 l/m 2,1 km/h (1 Bft) SW 230 0 min 0,000 mm 0,0 UV-I 0 W/m 2,5 C 2,8 C 4,8 km/h (1 Bft) 94,74 %
15.12.2016 03:18 2,8 C 98 % 1027,9 hPa 0,0 l/m 1,9 km/h (1 Bft) SW 230 0 min 0,000 mm 0,0 UV-I 0 W/m 2,5 C 2,8 C 3,2 km/h (1 Bft) 97,14 %
15.12.2016 03:20 2,8 C 98 % 1027,9 hPa 0,0 l/m 0,0 km/h (0 Bft) SW 230 0 min 0,000 mm 0,0 UV-I 0 W/m 2,5 C 2,8 C 0,0 km/h (0 Bft) 96,92 %
15.12.2016 03:22 2,8 C 98 % 1028,0 hPa 0,0 l/m 0,1 km/h (0 Bft) SW 230 0 min 0,000 mm 0,0 UV-I 0 W/m 2,5 C 2,8 C 1,6 km/h (1 Bft) 97,87 %
15.12.2016 03:24 2,8 C 98 % 1028,0 hPa 0,0 l/m 0,8 km/h (0 Bft) SW 230 0 min 0,000 mm 0,0 UV-I 0 W/m 2,5 C 2,8 C 3,2 km/h (1 Bft) 96,00 %
15.12.2016 03:26 2,8 C 98 % 1028,0 hPa 0,0 l/m 2,1 km/h (1 Bft) SW 230 0 min 0,000 mm 0,0 UV-I 0 W/m 2,5 C 2,8 C 3,2 km/h (1 Bft) 97,87 %
15.12.2016 03:28 2,8 C 98 % 1028,0 hPa 0,0 l/m 1,2 km/h (1 Bft) SW 230 0 min 0,000 mm 0,0 UV-I 0 W/m 2,5 C 2,8 C 3,2 km/h (1 Bft) 97,56 %
15.12.2016 03:30 2,8 C 98 % 1028,0 hPa 0,0 l/m 0,1 km/h (0 Bft) SW 230 0 min 0,000 mm 0,0 UV-I 0 W/m 2,5 C 2,8 C 1,6 km/h (1 Bft) 95,74 %
15.12.2016 03:32 2,8 C 98 % 1028,0 hPa 0,0 l/m 1,9 km/h (1 Bft) SW 230 0 min 0,000 mm 0,0 UV-I 0 W/m 2,5 C 2,8 C 4,8 km/h (1 Bft) 97,56 %
15.12.2016 03:34 2,8 C 98 % 1028,0 hPa 0,0 l/m 2,3 km/h (1 Bft) SW 230 0 min 0,000 mm 0,0 UV-I 0 W/m 2,5 C 2,8 C 3,2 km/h (1 Bft) 98,00 %
15.12.2016 03:36 2,8 C 98 % 1028,1 hPa 0,0 l/m 1,5 km/h (1 Bft) SW 234 0 min 0,000 mm 0,0 UV-I 0 W/m 2,5 C 2,8 C 3,2 km/h (1 Bft) 96,00 %
15.12.2016 03:38 2,8 C 98 % 1028,1 hPa 0,0 l/m 1,1 km/h (1 Bft) SW 236 0 min 0,000 mm 0,0 UV-I 0 W/m 2,5 C 2,8 C 3,2 km/h (1 Bft) 100,00 %
15.12.2016 03:40 2,8 C 98 % 1028,1 hPa 0,0 l/m 1,8 km/h (1 Bft) W-SW 238 0 min 0,000 mm 0,0 UV-I 0 W/m 2,5 C 2,8 C 4,8 km/h (1 Bft) 97,44 %
15.12.2016 03:42 2,8 C 98 % 1028,1 hPa 0,0 l/m 1,4 km/h (1 Bft) W-SW 238 0 min 0,000 mm 0,0 UV-I 0 W/m 2,5 C 2,8 C 3,2 km/h (1 Bft) 100,00 %
15.12.2016 03:44 2,8 C 98 % 1028,1 hPa 0,0 l/m 0,9 km/h (0 Bft) W-SW 238 0 min 0,000 mm 0,0 UV-I 0 W/m 2,5 C 2,8 C 3,2 km/h (1 Bft) 95,74 %
15.12.2016 03:46 2,8 C 98 % 1028,1 hPa 0,0 l/m 0,5 km/h (0 Bft) W-SW 238 0 min 0,000 mm 0,0 UV-I 0 W/m 2,5 C 2,8 C 3,2 km/h (1 Bft) 100,00 %
15.12.2016 03:48 2,8 C 98 % 1028,1 hPa 0,0 l/m 1,0 km/h (0 Bft) W-SW 238 0 min 0,000 mm 0,0 UV-I 0 W/m 2,5 C 2,8 C 3,2 km/h (1 Bft) 100,00 %
15.12.2016 03:50 2,8 C 98 % 1028,1 hPa 0,0 l/m 0,2 km/h (0 Bft) W-SW 238 0 min 0,000 mm 0,0 UV-I 0 W/m 2,5 C 2,8 C 1,6 km/h (1 Bft) 96,00 %
15.12.2016 03:52 2,8 C 98 % 1028,1 hPa 0,0 l/m 0,4 km/h (0 Bft) W-SW 238 0 min 0,000 mm 0,0 UV-I 0 W/m 2,5 C 2,8 C 1,6 km/h (1 Bft) 100,00 %
15.12.2016 03:54 2,8 C 98 % 1028,1 hPa 0,0 l/m 0,4 km/h (0 Bft) W-SW 238 0 min 0,000 mm 0,0 UV-I 0 W/m 2,5 C 2,8 C 3,2 km/h (1 Bft) 100,00 %
15.12.2016 03:56 2,8 C 98 % 1028,1 hPa 0,0 l/m 0,2 km/h (0 Bft) W-SW 238 0 min 0,000 mm 0,0 UV-I 0 W/m 2,5 C 2,8 C 3,2 km/h (1 Bft) 100,00 %
15.12.2016 03:58 2,8 C 98 % 1028,1 hPa 0,0 l/m 1,2 km/h (1 Bft) W-SW 238 0 min 0,000 mm 0,0 UV-I 0 W/m 2,5 C 2,8 C 3,2 km/h (1 Bft) 96,00 %
15.12.2016 04:00 2,8 C 98 % 1028,1 hPa 0,0 l/m 0,1 km/h (0 Bft) W-SW 238 0 min 0,000 mm 0,0 UV-I 0 W/m 2,5 C 2,8 C 1,6 km/h (1 Bft) 100,00 %
15.12.2016 04:02 2,8 C 98 % 1028,1 hPa 0,0 l/m 0,0 km/h (0 Bft) W-SW 238 0 min 0,000 mm 0,0 UV-I 0 W/m 2,5 C 2,8 C 1,6 km/h (1 Bft) 100,00 %
15.12.2016 04:04 2,8 C 98 % 1028,1 hPa 0,0 l/m 1,2 km/h (1 Bft) W-SW 238 0 min 0,000 mm 0,0 UV-I 0 W/m 2,5 C 2,8 C 3,2 km/h (1 Bft) 100,00 %
15.12.2016 04:06 2,8 C 98 % 1028,1 hPa 0,0 l/m 1,9 km/h (1 Bft) W-SW 238 0 min 0,000 mm 0,0 UV-I 0 W/m 2,5 C 2,8 C 3,2 km/h (1 Bft) 100,00 %
15.12.2016 04:08 2,8 C 98 % 1028,2 hPa 0,0 l/m 1,4 km/h (1 Bft) W-SW 238 0 min 0,000 mm 0,0 UV-I 0 W/m 2,5 C 2,8 C 3,2 km/h (1 Bft) 100,00 %
15.12.2016 04:10 2,8 C 98 % 1028,1 hPa 0,0 l/m 2,1 km/h (1 Bft) W-SW 238 0 min 0,000 mm 0,0 UV-I 0 W/m 2,5 C 2,8 C 3,2 km/h (1 Bft) 100,00 %
15.12.2016 04:12 2,8 C 98 % 1028,1 hPa 0,0 l/m 0,4 km/h (0 Bft) W-SW 238 0 min 0,000 mm 0,0 UV-I 0 W/m 2,5 C 2,8 C 1,6 km/h (1 Bft) 100,00 %
15.12.2016 04:14 2,8 C 98 % 1028,1 hPa 0,0 l/m 1,8 km/h (1 Bft) W 261 0 min 0,000 mm 0,0 UV-I 0 W/m 2,5 C 2,8 C 4,8 km/h (1 Bft) 98,00 %
15.12.2016 04:16 2,8 C 98 % 1028,1 hPa 0,0 l/m 2,0 km/h (1 Bft) W 267 0 min 0,000 mm 0,0 UV-I 0 W/m 2,5 C 2,8 C 3,2 km/h (1 Bft) 100,00 %
15.12.2016 04:18 2,8 C 98 % 1028,1 hPa 0,0 l/m 2,7 km/h (1 Bft) W 267 0 min 0,000 mm 0,0 UV-I 0 W/m 2,5 C 2,8 C 4,8 km/h (1 Bft) 100,00 %
15.12.2016 04:20 2,7 C 98 % 1028,1 hPa 0,0 l/m 1,7 km/h (1 Bft) W 267 0 min 0,000 mm 0,0 UV-I 0 W/m 2,4 C 2,7 C 3,2 km/h (1 Bft) 100,00 %
15.12.2016 04:22 2,8 C 98 % 1028,1 hPa 0,0 l/m 2,0 km/h (1 Bft) W 267 0 min 0,000 mm 0,0 UV-I 0 W/m 2,5 C 2,8 C 4,8 km/h (1 Bft) 97,44 %
15.12.2016 04:24 2,7 C 98 % 1028,1 hPa 0,0 l/m 0,2 km/h (0 Bft) W 267 0 min 0,000 mm 0,0 UV-I 0 W/m 2,4 C 2,7 C 1,6 km/h (1 Bft) 98,00 %
15.12.2016 04:26 2,7 C 98 % 1028,1 hPa 0,0 l/m 1,7 km/h (1 Bft) W 267 0 min 0,000 mm 0,0 UV-I 0 W/m 2,4 C 2,7 C 3,2 km/h (1 Bft) 100,00 %
15.12.2016 04:28 2,7 C 98 % 1028,1 hPa 0,0 l/m 0,3 km/h (0 Bft) W 267 0 min 0,000 mm 0,0 UV-I 0 W/m 2,4 C 2,7 C 1,6 km/h (1 Bft) 100,00 %
15.12.2016 04:30 2,7 C 98 % 1028,0 hPa 0,0 l/m 1,9 km/h (1 Bft) W 267 0 min 0,000 mm 0,0 UV-I 0 W/m 2,4 C 2,7 C 3,2 km/h (1 Bft) 100,00 %
15.12.2016 04:32 2,7 C 98 % 1027,9 hPa 0,0 l/m 2,1 km/h (1 Bft) W 267 0 min 0,000 mm 0,0 UV-I 0 W/m 2,4 C 2,7 C 3,2 km/h (1 Bft) 100,00 %
15.12.2016 04:34 2,7 C 98 % 1027,9 hPa 0,0 l/m 1,6 km/h (1 Bft) W 267 0 min 0,000 mm 0,0 UV-I 0 W/m 2,4 C 2,7 C 3,2 km/h (1 Bft) 97,87 %
15.12.2016 04:36 2,7 C 98 % 1027,9 hPa 0,0 l/m 1,8 km/h (1 Bft) W 267 0 min 0,000 mm 0,0 UV-I 0 W/m 2,4 C 2,7 C 3,2 km/h (1 Bft) 100,00 %
15.12.2016 04:38 2,7 C 98 % 1027,9 hPa 0,0 l/m 0,5 km/h (0 Bft) W 267 0 min 0,000 mm 0,0 UV-I 0 W/m 2,4 C 2,7 C 1,6 km/h (1 Bft) 100,00 %
15.12.2016 04:40 2,7 C 98 % 1027,9 hPa 0,0 l/m 0,5 km/h (0 Bft) W 267 0 min 0,000 mm 0,0 UV-I 0 W/m 2,4 C 2,7 C 1,6 km/h (1 Bft) 100,00 %
15.12.2016 04:42 2,7 C 98 % 1027,9 hPa 0,0 l/m 1,0 km/h (0 Bft) W 267 0 min 0,000 mm 0,0 UV-I 0 W/m 2,4 C 2,7 C 3,2 km/h (1 Bft) 100,00 %
15.12.2016 04:44 2,6 C 98 % 1027,9 hPa 0,0 l/m 1,0 km/h (0 Bft) W 267 0 min 0,000 mm 0,0 UV-I 0 W/m 2,3 C 2,6 C 3,2 km/h (1 Bft) 97,37 %
15.12.2016 04:46 2,6 C 98 % 1027,9 hPa 0,0 l/m 1,2 km/h (1 Bft) W 267 0 min 0,000 mm 0,0 UV-I 0 W/m 2,3 C 2,6 C 3,2 km/h (1 Bft) 100,00 %
15.12.2016 04:48 2,6 C 98 % 1027,9 hPa 0,0 l/m 1,7 km/h (1 Bft) W 267 0 min 0,000 mm 0,0 UV-I 0 W/m 2,3 C 2,6 C 3,2 km/h (1 Bft) 100,00 %
15.12.2016 04:50 2,6 C 98 % 1027,9 hPa 0,0 l/m 1,5 km/h (1 Bft) W 267 0 min 0,000 mm 0,0 UV-I 0 W/m 2,3 C 2,6 C 3,2 km/h (1 Bft) 98,11 %
15.12.2016 04:52 2,6 C 98 % 1027,9 hPa 0,0 l/m 2,8 km/h (1 Bft) W 267 0 min 0,000 mm 0,0 UV-I 0 W/m 2,3 C 2,6 C 4,8 km/h (1 Bft) 98,00 %
15.12.2016 04:54 2,6 C 98 % 1028,0 hPa 0,0 l/m 1,3 km/h (1 Bft) W 267 0 min 0,000 mm 0,0 UV-I 0 W/m 2,3 C 2,6 C 3,2 km/h (1 Bft) 100,00 %
15.12.2016 04:56 2,6 C 98 % 1027,9 hPa 0,0 l/m 0,2 km/h (0 Bft) W 267 0 min 0,000 mm 0,0 UV-I 0 W/m 2,3 C 2,6 C 1,6 km/h (1 Bft) 100,00 %
15.12.2016 04:58 2,6 C 98 % 1027,9 hPa 0,0 l/m 0,0 km/h (0 Bft) W 267 0 min 0,000 mm 0,0 UV-I 0 W/m 2,3 C 2,6 C 0,0 km/h (0 Bft) 100,00 %
15.12.2016 05:00 2,5 C 98 % 1027,9 hPa 0,0 l/m 0,0 km/h (0 Bft) W 267 0 min 0,000 mm 0,0 UV-I 0 W/m 2,2 C 2,5 C 0,0 km/h (0 Bft) 100,00 %
15.12.2016 05:02 2,5 C 98 % 1027,9 hPa 0,0 l/m 0,0 km/h (0 Bft) W 267 0 min 0,000 mm 0,0 UV-I 0 W/m 2,2 C 2,5 C 0,0 km/h (0 Bft) 100,00 %
15.12.2016 05:04 2,5 C 98 % 1027,9 hPa 0,0 l/m 0,0 km/h (0 Bft) W 267 0 min 0,000 mm 0,0 UV-I 0 W/m 2,2 C 2,5 C 0,0 km/h (0 Bft) 97,87 %
15.12.2016 05:06 2,5 C 98 % 1027,9 hPa 0,0 l/m 0,0 km/h (0 Bft) W 267 0 min 0,000 mm 0,0 UV-I 0 W/m 2,2 C 2,5 C 1,6 km/h (1 Bft) 97,87 %
15.12.2016 05:08 2,5 C 98 % 1027,9 hPa 0,0 l/m 0,0 km/h (0 Bft) W 267 0 min 0,000 mm 0,0 UV-I 0 W/m 2,2 C 2,5 C 0,0 km/h (0 Bft) 97,56 %
15.12.2016 05:10 2,6 C 98 % 1028,0 hPa 0,0 l/m 0,1 km/h (0 Bft) W 267 0 min 0,000 mm 0,0 UV-I 0 W/m 2,3 C 2,6 C 1,6 km/h (1 Bft) 97,87 %
15.12.2016 05:12 2,6 C 98 % 1028,0 hPa 0,0 l/m 0,3 km/h (0 Bft) W 267 0 min 0,000 mm 0,0 UV-I 0 W/m 2,3 C 2,6 C 1,6 km/h (1 Bft) 96,00 %
15.12.2016 05:14 2,5 C 98 % 1027,9 hPa 0,0 l/m 0,0 km/h (0 Bft) W 267 0 min 0,000 mm 0,0 UV-I 0 W/m 2,2 C 2,5 C 0,0 km/h (0 Bft) 98,11 %
15.12.2016 05:16 2,5 C 98 % 1028,0 hPa 0,0 l/m 0,2 km/h (0 Bft) W 267 0 min 0,000 mm 0,0 UV-I 0 W/m 2,2 C 2,5 C 1,6 km/h (1 Bft) 95,74 %
15.12.2016 05:18 2,5 C 98 % 1028,0 hPa 0,0 l/m 0,0 km/h (0 Bft) W 267 0 min 0,000 mm 0,0 UV-I 0 W/m 2,2 C 2,5 C 0,0 km/h (0 Bft) 97,37 %
15.12.2016 05:20 2,5 C 98 % 1028,0 hPa 0,0 l/m 0,1 km/h (0 Bft) W 267 0 min 0,000 mm 0,0 UV-I 0 W/m 2,2 C 2,5 C 1,6 km/h (1 Bft) 97,87 %
15.12.2016 05:22 2,5 C 98 % 1028,0 hPa 0,0 l/m 0,0 km/h (0 Bft) W 267 0 min 0,000 mm 0,0 UV-I 0 W/m 2,2 C 2,5 C 0,0 km/h (0 Bft) 97,87 %
15.12.2016 05:24 2,5 C 98 % 1028,0 hPa 0,0 l/m 0,0 km/h (0 Bft) W 267 0 min 0,000 mm 0,0 UV-I 0 W/m 2,2 C 2,5 C 0,0 km/h (0 Bft) 98,00 %
15.12.2016 05:26 2,5 C 98 % 1028,1 hPa 0,0 l/m 0,0 km/h (0 Bft) W 267 0 min 0,000 mm 0,0 UV-I 0 W/m 2,2 C 2,5 C 0,0 km/h (0 Bft) 95,45 %
15.12.2016 05:28 2,5 C 98 % 1028,0 hPa 0,0 l/m 0,0 km/h (0 Bft) W 267 0 min 0,000 mm 0,0 UV-I 0 W/m 2,2 C 2,5 C 0,0 km/h (0 Bft) 96,23 %
15.12.2016 05:30 2,5 C 98 % 1028,0 hPa 0,0 l/m 0,4 km/h (0 Bft) W 267 0 min 0,000 mm 0,0 UV-I 0 W/m 2,2 C 2,5 C 1,6 km/h (1 Bft) 97,37 %
15.12.2016 05:32 2,5 C 98 % 1028,0 hPa 0,0 l/m 0,0 km/h (0 Bft) W 267 0 min 0,000 mm 0,0 UV-I 0 W/m 2,2 C 2,5 C 0,0 km/h (0 Bft) 95,74 %
15.12.2016 05:34 2,4 C 98 % 1028,0 hPa 0,0 l/m 0,0 km/h (0 Bft) W 267 0 min 0,000 mm 0,0 UV-I 0 W/m 2,1 C 2,4 C 1,6 km/h (1 Bft) 97,87 %
15.12.2016 05:36 2,4 C 98 % 1028,0 hPa 0,0 l/m 0,5 km/h (0 Bft) W 267 0 min 0,000 mm 0,0 UV-I 0 W/m 2,1 C 2,4 C 3,2 km/h (1 Bft) 96,00 %
15.12.2016 05:38 2,4 C 98 % 1028,0 hPa 0,0 l/m 0,0 km/h (0 Bft) W 267 0 min 0,000 mm 0,0 UV-I 0 W/m 2,1 C 2,4 C 0,0 km/h (0 Bft) 98,00 %
15.12.2016 05:40 2,5 C 98 % 1028,0 hPa 0,0 l/m 0,7 km/h (0 Bft) W 267 0 min 0,000 mm 0,0 UV-I 0 W/m 2,2 C 2,5 C 1,6 km/h (1 Bft) 97,87 %
15.12.2016 05:42 2,5 C 98 % 1028,0 hPa 0,0 l/m 0,0 km/h (0 Bft) W 267 0 min 0,000 mm 0,0 UV-I 0 W/m 2,2 C 2,5 C 0,0 km/h (0 Bft) 98,00 %
15.12.2016 05:44 2,5 C 98 % 1028,0 hPa 0,0 l/m 0,0 km/h (0 Bft) W 267 0 min 0,000 mm 0,0 UV-I 0 W/m 2,2 C 2,5 C 0,0 km/h (0 Bft) 100,00 %
15.12.2016 05:46 2,4 C 98 % 1028,0 hPa 0,0 l/m 0,0 km/h (0 Bft) W 267 0 min 0,000 mm 0,0 UV-I 0 W/m 2,1 C 2,4 C 0,0 km/h (0 Bft) 100,00 %
15.12.2016 05:48 2,4 C 98 % 1028,0 hPa 0,0 l/m 0,0 km/h (0 Bft) W 267 0 min 0,000 mm 0,0 UV-I 0 W/m 2,1 C 2,4 C 0,0 km/h (0 Bft) 100,00 %
15.12.2016 05:50 2,4 C 98 % 1028,0 hPa 0,0 l/m 0,0 km/h (0 Bft) W 267 0 min 0,000 mm 0,0 UV-I 0 W/m 2,1 C 2,4 C 0,0 km/h (0 Bft) 97,87 %
15.12.2016 05:52 2,4 C 98 % 1028,0 hPa 0,0 l/m 0,0 km/h (0 Bft) W 267 0 min 0,000 mm 0,0 UV-I 0 W/m 2,1 C 2,4 C 0,0 km/h (0 Bft) 97,87 %
15.12.2016 05:54 2,4 C 98 % 1028,0 hPa 0,0 l/m 0,0 km/h (0 Bft) W 267 0 min 0,000 mm 0,0 UV-I 0 W/m 2,1 C 2,4 C 0,0 km/h (0 Bft) 100,00 %
15.12.2016 05:56 2,4 C 98 % 1028,0 hPa 0,0 l/m 0,0 km/h (0 Bft) W 267 0 min 0,000 mm 0,0 UV-I 0 W/m 2,1 C 2,4 C 0,0 km/h (0 Bft) 100,00 %
15.12.2016 05:58 2,4 C 98 % 1028,0 hPa 0,0 l/m 0,5 km/h (0 Bft) W 267 0 min 0,000 mm 0,0 UV-I 0 W/m 2,1 C 2,4 C 1,6 km/h (1 Bft) 97,37 %
15.12.2016 06:00 2,4 C 98 % 1028,1 hPa 0,0 l/m 2,5 km/h (1 Bft) W 267 0 min 0,000 mm 0,0 UV-I 0 W/m 2,1 C 2,4 C 3,2 km/h (1 Bft) 100,00 %
15.12.2016 06:02 2,4 C 98 % 1028,1 hPa 0,0 l/m 1,9 km/h (1 Bft) W 267 0 min 0,000 mm 0,0 UV-I 0 W/m 2,1 C 2,4 C 3,2 km/h (1 Bft) 100,00 %
15.12.2016 06:04 2,4 C 98 % 1028,0 hPa 0,0 l/m 1,6 km/h (1 Bft) W 267 0 min 0,000 mm 0,0 UV-I 0 W/m 2,1 C 2,4 C 3,2 km/h (1 Bft) 100,00 %
15.12.2016 06:06 2,4 C 98 % 1028,0 hPa 0,0 l/m 2,4 km/h (1 Bft) S-SW 202 0 min 0,000 mm 0,0 UV-I 0 W/m 2,1 C 2,4 C 3,2 km/h (1 Bft) 100,00 %
15.12.2016 06:08 2,4 C 98 % 1028,1 hPa 0,0 l/m 2,6 km/h (1 Bft) S-SW 202 0 min 0,000 mm 0,0 UV-I 0 W/m 2,1 C 2,4 C 4,8 km/h (1 Bft) 100,00 %
15.12.2016 06:10 2,4 C 98 % 1028,1 hPa 0,0 l/m 2,2 km/h (1 Bft) S-SW 201 0 min 0,000 mm 0,0 UV-I 0 W/m 2,1 C 2,4 C 3,2 km/h (1 Bft) 100,00 %
15.12.2016 06:12 2,4 C 98 % 1028,0 hPa 0,0 l/m 0,7 km/h (0 Bft) S-SW 201 0 min 0,000 mm 0,0 UV-I 0 W/m 2,1 C 2,4 C 1,6 km/h (1 Bft) 100,00 %
15.12.2016 06:14 2,4 C 98 % 1028,0 hPa 0,0 l/m 0,7 km/h (0 Bft) S-SW 201 0 min 0,000 mm 0,0 UV-I 0 W/m 2,1 C 2,4 C 1,6 km/h (1 Bft) 97,87 %
15.12.2016 06:16 2,4 C 98 % 1028,1 hPa 0,0 l/m 0,0 km/h (0 Bft) S-SW 201 0 min 0,000 mm 0,0 UV-I 0 W/m 2,1 C 2,4 C 0,0 km/h (0 Bft) 100,00 %
15.12.2016 06:18 2,4 C 98 % 1028,1 hPa 0,0 l/m 0,0 km/h (0 Bft) S-SW 201 0 min 0,000 mm 0,0 UV-I 0 W/m 2,1 C 2,4 C 0,0 km/h (0 Bft) 100,00 %
15.12.2016 06:20 2,4 C 98 % 1028,1 hPa 0,0 l/m 0,1 km/h (0 Bft) S-SW 201 0 min 0,000 mm 0,0 UV-I 0 W/m 2,1 C 2,4 C 1,6 km/h (1 Bft) 100,00 %
15.12.2016 06:22 2,4 C 98 % 1028,1 hPa 0,0 l/m 0,2 km/h (0 Bft) S-SW 201 0 min 0,000 mm 0,0 UV-I 0 W/m 2,1 C 2,4 C 1,6 km/h (1 Bft) 100,00 %
15.12.2016 06:24 2,4 C 98 % 1028,1 hPa 0,0 l/m 0,0 km/h (0 Bft) S-SW 201 0 min 0,000 mm 0,0 UV-I 0 W/m 2,1 C 2,4 C 0,0 km/h (0 Bft) 100,00 %
15.12.2016 06:26 2,4 C 98 % 1028,1 hPa 0,0 l/m 0,0 km/h (0 Bft) S-SW 201 0 min 0,000 mm 0,0 UV-I 0 W/m 2,1 C 2,4 C 0,0 km/h (0 Bft) 100,00 %
15.12.2016 06:28 2,4 C 98 % 1028,2 hPa 0,0 l/m 0,0 km/h (0 Bft) S-SW 201 0 min 0,000 mm 0,0 UV-I 0 W/m 2,1 C 2,4 C 0,0 km/h (0 Bft) 100,00 %
15.12.2016 06:30 2,4 C 98 % 1028,2 hPa 0,0 l/m 1,0 km/h (0 Bft) S-SW 201 0 min 0,000 mm 0,0 UV-I 0 W/m 2,1 C 2,4 C 3,2 km/h (1 Bft) 100,00 %
15.12.2016 06:32 2,4 C 98 % 1028,2 hPa 0,0 l/m 0,7 km/h (0 Bft) S-SW 201 0 min 0,000 mm 0,0 UV-I 0 W/m 2,1 C 2,4 C 3,2 km/h (1 Bft) 100,00 %
15.12.2016 06:34 2,4 C 98 % 1028,2 hPa 0,0 l/m 0,1 km/h (0 Bft) S-SW 201 0 min 0,000 mm 0,0 UV-I 0 W/m 2,1 C 2,4 C 1,6 km/h (1 Bft) 100,00 %
15.12.2016 06:36 2,4 C 98 % 1028,2 hPa 0,0 l/m 0,0 km/h (0 Bft) S-SW 201 0 min 0,000 mm 0,0 UV-I 0 W/m 2,1 C 2,4 C 1,6 km/h (1 Bft) 100,00 %
15.12.2016 06:38 2,4 C 98 % 1028,3 hPa 0,0 l/m 0,4 km/h (0 Bft) S-SW 201 0 min 0,000 mm 0,0 UV-I 0 W/m 2,1 C 2,4 C 1,6 km/h (1 Bft) 97,37 %
15.12.2016 06:40 2,4 C 98 % 1028,3 hPa 0,0 l/m 0,2 km/h (0 Bft) S-SW 201 0 min 0,000 mm 0,0 UV-I 0 W/m 2,1 C 2,4 C 1,6 km/h (1 Bft) 100,00 %
15.12.2016 06:42 2,4 C 98 % 1028,3 hPa 0,0 l/m 1,1 km/h (1 Bft) S-SW 201 0 min 0,000 mm 0,0 UV-I 0 W/m 2,1 C 2,4 C 3,2 km/h (1 Bft) 100,00 %
15.12.2016 06:44 2,4 C 98 % 1028,3 hPa 0,0 l/m 0,0 km/h (0 Bft) S-SW 201 0 min 0,000 mm 0,0 UV-I 0 W/m 2,1 C 2,4 C 1,6 km/h (1 Bft) 100,00 %
15.12.2016 06:46 2,4 C 98 % 1028,3 hPa 0,0 l/m 0,7 km/h (0 Bft) S-SW 201 0 min 0,000 mm 0,0 UV-I 0 W/m 2,1 C 2,4 C 3,2 km/h (1 Bft) 98,00 %
15.12.2016 06:48 2,4 C 98 % 1028,2 hPa 0,0 l/m 0,6 km/h (0 Bft) S-SW 201 0 min 0,000 mm 0,0 UV-I 0 W/m 2,1 C 2,4 C 3,2 km/h (1 Bft) 100,00 %
15.12.2016 06:50 2,4 C 98 % 1028,2 hPa 0,0 l/m 0,7 km/h (0 Bft) S-SW 201 0 min 0,000 mm 0,0 UV-I 0 W/m 2,1 C 2,4 C 3,2 km/h (1 Bft) 97,87 %
15.12.2016 06:52 2,4 C 98 % 1028,2 hPa 0,0 l/m 0,1 km/h (0 Bft) S-SW 201 0 min 0,000 mm 0,0 UV-I 0 W/m 2,1 C 2,4 C 1,6 km/h (1 Bft) 100,00 %
15.12.2016 06:54 2,4 C 98 % 1028,3 hPa 0,0 l/m 0,8 km/h (0 Bft) S-SW 201 0 min 0,000 mm 0,0 UV-I 0 W/m 2,1 C 2,4 C 1,6 km/h (1 Bft) 100,00 %
15.12.2016 06:56 2,4 C 98 % 1028,2 hPa 0,0 l/m 1,5 km/h (1 Bft) S-SW 201 0 min 0,000 mm 0,0 UV-I 0 W/m 2,1 C 2,4 C 3,2 km/h (1 Bft) 100,00 %
15.12.2016 06:58 2,4 C 98 % 1028,3 hPa 0,0 l/m 1,0 km/h (0 Bft) S-SW 201 0 min 0,000 mm 0,0 UV-I 0 W/m 2,1 C 2,4 C 3,2 km/h (1 Bft) 98,00 %
15.12.2016 07:00 2,4 C 98 % 1028,3 hPa 0,0 l/m 4,3 km/h (1 Bft) O 88 0 min 0,000 mm 0,0 UV-I 0 W/m 2,1 C 2,4 C 6,4 km/h (2 Bft) 100,00 %
15.12.2016 07:02 2,4 C 98 % 1028,2 hPa 0,0 l/m 2,9 km/h (1 Bft) O 96 0 min 0,000 mm 0,0 UV-I 0 W/m 2,1 C 2,4 C 4,8 km/h (1 Bft) 95,74 %
15.12.2016 07:04 2,4 C 98 % 1028,3 hPa 0,0 l/m 1,3 km/h (1 Bft) O 96 0 min 0,000 mm 0,0 UV-I 0 W/m 2,1 C 2,4 C 1,6 km/h (1 Bft) 97,87 %
15.12.2016 07:06 2,4 C 98 % 1028,3 hPa 0,0 l/m 1,5 km/h (1 Bft) O 96 0 min 0,000 mm 0,0 UV-I 0 W/m 2,1 C 2,4 C 3,2 km/h (1 Bft) 100,00 %
15.12.2016 07:08 2,4 C 98 % 1028,3 hPa 0,0 l/m 0,0 km/h (0 Bft) O 96 0 min 0,000 mm 0,0 UV-I 0 W/m 2,1 C 2,4 C 1,6 km/h (1 Bft) 100,00 %
15.12.2016 07:10 2,4 C 98 % 1028,3 hPa 0,0 l/m 0,0 km/h (0 Bft) O 96 0 min 0,000 mm 0,0 UV-I 0 W/m 2,1 C 2,4 C 0,0 km/h (0 Bft) 95,74 %
15.12.2016 07:12 2,4 C 98 % 1028,3 hPa 0,0 l/m 0,0 km/h (0 Bft) O 96 0 min 0,000 mm 0,0 UV-I 0 W/m 2,1 C 2,4 C 0,0 km/h (0 Bft) 93,62 %
15.12.2016 07:14 2,4 C 98 % 1028,3 hPa 0,0 l/m 0,0 km/h (0 Bft) O 96 0 min 0,000 mm 0,0 UV-I 0 W/m 2,1 C 2,4 C 0,0 km/h (0 Bft) 98,11 %
15.12.2016 07:16 2,4 C 98 % 1028,3 hPa 0,0 l/m 0,0 km/h (0 Bft) O 96 0 min 0,000 mm 0,0 UV-I 0 W/m 2,1 C 2,4 C 0,0 km/h (0 Bft) 97,87 %
15.12.2016 07:18 2,4 C 98 % 1028,3 hPa 0,0 l/m 0,0 km/h (0 Bft) O 96 0 min 0,000 mm 0,0 UV-I 0 W/m 2,1 C 2,4 C 0,0 km/h (0 Bft) 97,37 %
15.12.2016 07:20 2,4 C 98 % 1028,3 hPa 0,0 l/m 0,4 km/h (0 Bft) O 96 0 min 0,000 mm 0,0 UV-I 0 W/m 2,1 C 2,4 C 3,2 km/h (1 Bft) 97,87 %
15.12.2016 07:22 2,4 C 98 % 1028,3 hPa 0,0 l/m 1,6 km/h (1 Bft) O 96 0 min 0,000 mm 0,0 UV-I 0 W/m 2,1 C 2,4 C 3,2 km/h (1 Bft) 95,74 %
15.12.2016 07:24 2,5 C 98 % 1028,3 hPa 0,0 l/m 0,0 km/h (0 Bft) O 96 0 min 0,000 mm 0,0 UV-I 0 W/m 2,2 C 2,5 C 0,0 km/h (0 Bft) 96,00 %
15.12.2016 07:26 2,4 C 98 % 1028,3 hPa 0,0 l/m 0,3 km/h (0 Bft) O 96 0 min 0,000 mm 0,0 UV-I 0 W/m 2,1 C 2,4 C 1,6 km/h (1 Bft) 96,00 %
15.12.2016 07:28 2,4 C 98 % 1028,3 hPa 0,0 l/m 1,5 km/h (1 Bft) O-SO 105 0 min 0,000 mm 0,0 UV-I 0 W/m 2,1 C 2,4 C 6,4 km/h (2 Bft) 95,12 %
15.12.2016 07:30 2,5 C 98 % 1028,3 hPa 0,0 l/m 3,1 km/h (1 Bft) O-SO 105 0 min 0,000 mm 0,0 UV-I 0 W/m 2,2 C 2,5 C 4,8 km/h (1 Bft) 96,00 %
15.12.2016 07:32 2,5 C 98 % 1028,3 hPa 0,0 l/m 1,1 km/h (1 Bft) O-SO 105 0 min 0,000 mm 0,0 UV-I 0 W/m 2,2 C 2,5 C 3,2 km/h (1 Bft) 97,87 %
15.12.2016 07:34 2,5 C 98 % 1028,3 hPa 0,0 l/m 0,9 km/h (0 Bft) O-SO 105 0 min 0,000 mm 0,0 UV-I 0 W/m 2,2 C 2,5 C 3,2 km/h (1 Bft) 100,00 %
15.12.2016 07:36 2,5 C 98 % 1028,2 hPa 0,0 l/m 1,2 km/h (1 Bft) O-SO 105 0 min 0,000 mm 0,0 UV-I 0 W/m 2,2 C 2,5 C 3,2 km/h (1 Bft) 95,24 %
15.12.2016 07:38 2,5 C 98 % 1028,2 hPa 0,0 l/m 0,2 km/h (0 Bft) O-SO 105 0 min 0,000 mm 0,0 UV-I 0 W/m 2,2 C 2,5 C 3,2 km/h (1 Bft) 95,74 %
15.12.2016 07:40 2,6 C 98 % 1028,2 hPa 0,0 l/m 2,3 km/h (1 Bft) O 85 0 min 0,000 mm 0,0 UV-I 5 W/m 2,3 C 2,6 C 4,8 km/h (1 Bft) 97,87 %
15.12.2016 07:42 2,6 C 98 % 1028,3 hPa 0,0 l/m 4,2 km/h (1 Bft) O 90 0 min 0,000 mm 0,0 UV-I 5 W/m 2,3 C 2,6 C 6,4 km/h (2 Bft) 95,12 %
15.12.2016 07:44 2,6 C 98 % 1028,3 hPa 0,0 l/m 2,2 km/h (1 Bft) O 90 0 min 0,000 mm 0,0 UV-I 5 W/m 2,3 C 2,6 C 4,8 km/h (1 Bft) 100,00 %
15.12.2016 07:46 2,6 C 98 % 1028,3 hPa 0,0 l/m 1,5 km/h (1 Bft) O 90 0 min 0,000 mm 0,0 UV-I 5 W/m 2,3 C 2,6 C 3,2 km/h (1 Bft) 98,00 %
15.12.2016 07:48 2,6 C 98 % 1028,3 hPa 0,0 l/m 0,2 km/h (0 Bft) O 90 0 min 0,000 mm 0,0 UV-I 5 W/m 2,3 C 2,6 C 1,6 km/h (1 Bft) 100,00 %
15.12.2016 07:50 2,6 C 98 % 1028,3 hPa 0,0 l/m 0,5 km/h (0 Bft) O 90 0 min 0,000 mm 0,0 UV-I 5 W/m 2,3 C 2,6 C 3,2 km/h (1 Bft) 100,00 %
15.12.2016 07:52 2,5 C 98 % 1028,4 hPa 0,0 l/m 1,7 km/h (1 Bft) O 92 0 min 0,000 mm 0,0 UV-I 7 W/m 2,2 C 2,5 C 4,8 km/h (1 Bft) 100,00 %
15.12.2016 07:54 2,5 C 98 % 1028,4 hPa 0,0 l/m 1,7 km/h (1 Bft) O 92 0 min 0,000 mm 0,0 UV-I 7 W/m 2,2 C 2,5 C 4,8 km/h (1 Bft) 97,87 %
15.12.2016 07:56 2,5 C 98 % 1028,4 hPa 0,0 l/m 1,1 km/h (1 Bft) O 92 0 min 0,000 mm 0,0 UV-I 7 W/m 2,2 C 2,5 C 3,2 km/h (1 Bft) 98,00 %
15.12.2016 07:58 2,5 C 98 % 1028,5 hPa 0,0 l/m 1,9 km/h (1 Bft) O 92 0 min 0,000 mm 0,0 UV-I 7 W/m 2,2 C 2,5 C 3,2 km/h (1 Bft) 100,00 %
15.12.2016 08:00 2,5 C 98 % 1028,5 hPa 0,0 l/m 3,8 km/h (1 Bft) O-SO 121 0 min 0,000 mm 0,0 UV-I 7 W/m 2,2 C 2,5 C 6,4 km/h (2 Bft) 96,30 %
15.12.2016 08:02 2,5 C 98 % 1028,6 hPa 0,0 l/m 1,7 km/h (1 Bft) O-SO 121 0 min 0,000 mm 0,0 UV-I 7 W/m 2,2 C 2,5 C 3,2 km/h (1 Bft) 98,51 %
15.12.2016 08:04 2,5 C 98 % 1028,6 hPa 0,0 l/m 3,7 km/h (1 Bft) O-NO 76 0 min 0,000 mm 0,0 UV-I 7 W/m 2,2 C 2,5 C 6,4 km/h (2 Bft) 100,00 %
15.12.2016 08:06 2,5 C 98 % 1028,6 hPa 0,0 l/m 5,1 km/h (1 Bft) O-NO 60 0 min 0,000 mm 0,0 UV-I 7 W/m 2,2 C 2,5 C 8,0 km/h (2 Bft) 100,00 %
15.12.2016 08:08 2,5 C 98 % 1028,6 hPa 0,0 l/m 5,7 km/h (1 Bft) NO 50 0 min 0,000 mm 0,0 UV-I 9 W/m 2,2 C 2,5 C 8,0 km/h (2 Bft) 98,00 %
15.12.2016 08:10 2,5 C 98 % 1028,7 hPa 0,0 l/m 5,9 km/h (2 Bft) O-NO 59 0 min 0,000 mm 0,0 UV-I 9 W/m 2,2 C 2,5 C 8,0 km/h (2 Bft) 100,00 %
15.12.2016 08:13 2,5 C 98 % 1028,7 hPa 0,0 l/m 5,9 km/h (2 Bft) NO 56 0 min 0,000 mm 0,0 UV-I 9 W/m 2,2 C 2,5 C 8,0 km/h (2 Bft) 100,00 %
15.12.2016 08:14 2,4 C 98 % 1028,7 hPa 0,0 l/m 5,8 km/h (2 Bft) O 84 0 min 0,000 mm 0,0 UV-I 9 W/m 2,1 C 2,4 C 8,0 km/h (2 Bft) 100,00 %
15.12.2016 08:16 2,5 C 98 % 1028,8 hPa 0,0 l/m 6,6 km/h (2 Bft) O-NO 75 0 min 0,000 mm 0,0 UV-I 11 W/m 2,2 C 2,3 C 8,0 km/h (2 Bft) 100,00 %
15.12.2016 08:18 2,5 C 98 % 1028,7 hPa 0,0 l/m 5,1 km/h (1 Bft) O 82 0 min 0,000 mm 0,0 UV-I 12 W/m 2,2 C 2,5 C 6,4 km/h (2 Bft) 100,00 %
15.12.2016 08:20 2,5 C 98 % 1028,8 hPa 0,0 l/m 5,6 km/h (1 Bft) O-NO 70 0 min 0,000 mm 0,0 UV-I 12 W/m 2,2 C 2,5 C 8,0 km/h (2 Bft) 100,00 %
15.12.2016 08:22 2,5 C 98 % 1028,8 hPa 0,0 l/m 4,0 km/h (1 Bft) O-NO 70 0 min 0,000 mm 0,0 UV-I 12 W/m 2,2 C 2,5 C 4,8 km/h (1 Bft) 100,00 %
15.12.2016 08:24 2,5 C 98 % 1028,8 hPa 0,0 l/m 4,1 km/h (1 Bft) O-NO 67 0 min 0,000 mm 0,0 UV-I 14 W/m 2,2 C 2,5 C 6,4 km/h (2 Bft) 100,00 %
15.12.2016 08:26 2,5 C 98 % 1028,9 hPa 0,0 l/m 5,6 km/h (1 Bft) O-NO 63 0 min 0,000 mm 0,0 UV-I 14 W/m 2,2 C 2,5 C 6,4 km/h (2 Bft) 100,00 %
15.12.2016 08:28 2,5 C 98 % 1028,9 hPa 0,0 l/m 5,4 km/h (1 Bft) NO 56 0 min 0,000 mm 0,0 UV-I 13 W/m 2,2 C 2,5 C 6,4 km/h (2 Bft) 98,00 %
15.12.2016 08:30 2,5 C 98 % 1028,9 hPa 0,0 l/m 6,0 km/h (2 Bft) NO 52 0 min 0,000 mm 0,0 UV-I 14 W/m 2,2 C 2,5 C 8,0 km/h (2 Bft) 97,73 %
15.12.2016 08:32 2,5 C 98 % 1028,9 hPa 0,0 l/m 6,8 km/h (2 Bft) O-NO 63 0 min 0,000 mm 0,0 UV-I 16 W/m 2,2 C 2,1 C 9,7 km/h (2 Bft) 97,87 %
15.12.2016 08:34 2,5 C 98 % 1029,0 hPa 0,0 l/m 5,8 km/h (2 Bft) NO 55 0 min 0,000 mm 0,0 UV-I 19 W/m 2,2 C 2,5 C 8,0 km/h (2 Bft) 100,00 %
15.12.2016 08:36 2,5 C 98 % 1029,0 hPa 0,0 l/m 4,8 km/h (1 Bft) O-NO 57 0 min 0,000 mm 0,0 UV-I 23 W/m 2,2 C 2,5 C 6,4 km/h (2 Bft) 97,37 %
15.12.2016 08:38 2,5 C 98 % 1029,0 hPa 0,0 l/m 5,3 km/h (1 Bft) NO 52 0 min 0,000 mm 0,0 UV-I 22 W/m 2,2 C 2,5 C 6,4 km/h (2 Bft) 98,00 %
15.12.2016 08:40 2,6 C 98 % 1029,0 hPa 0,0 l/m 6,2 km/h (2 Bft) O-NO 63 0 min 0,000 mm 0,0 UV-I 24 W/m 2,3 C 2,6 C 8,0 km/h (2 Bft) 100,00 %
15.12.2016 08:42 2,5 C 98 % 1029,0 hPa 0,0 l/m 5,4 km/h (1 Bft) NO 50 0 min 0,000 mm 0,0 UV-I 29 W/m 2,2 C 2,5 C 6,4 km/h (2 Bft) 100,00 %
15.12.2016 08:44 2,6 C 98 % 1029,1 hPa 0,0 l/m 7,6 km/h (2 Bft) N-NO 29 0 min 0,000 mm 0,0 UV-I 35 W/m 2,3 C 1,5 C 9,7 km/h (2 Bft) 100,00 %
15.12.2016 08:46 2,6 C 98 % 1029,1 hPa 0,0 l/m 7,6 km/h (2 Bft) NO 40 0 min 0,000 mm 0,0 UV-I 35 W/m 2,3 C 1,5 C 9,7 km/h (2 Bft) 100,00 %
15.12.2016 08:48 2,6 C 98 % 1029,1 hPa 0,0 l/m 10,0 km/h (2 Bft) O-NO 60 0 min 0,000 mm 0,0 UV-I 30 W/m 2,3 C -0,6 C 16,1 km/h (3 Bft) 100,00 %
15.12.2016 08:50 2,6 C 98 % 1029,1 hPa 0,0 l/m 8,9 km/h (2 Bft) O-NO 66 0 min 0,000 mm 0,0 UV-I 28 W/m 2,3 C 0,3 C 12,9 km/h (3 Bft) 100,00 %
15.12.2016 08:52 2,5 C 98 % 1029,1 hPa 0,0 l/m 8,4 km/h (2 Bft) NO 51 0 min 0,000 mm 0,0 UV-I 26 W/m 2,2 C 0,6 C 14,5 km/h (3 Bft) 100,00 %
15.12.2016 08:54 2,5 C 98 % 1029,1 hPa 0,0 l/m 10,7 km/h (2 Bft) NO 42 0 min 0,000 mm 0,0 UV-I 35 W/m 2,2 C -1,2 C 16,1 km/h (3 Bft) 100,00 %
15.12.2016 08:56 2,5 C 98 % 1029,1 hPa 0,0 l/m 9,0 km/h (2 Bft) NO 43 0 min 0,000 mm 0,0 UV-I 33 W/m 2,2 C 0,1 C 12,9 km/h (3 Bft) 100,00 %
15.12.2016 08:58 2,5 C 98 % 1029,1 hPa 0,0 l/m 7,0 km/h (2 Bft) NO 55 0 min 0,000 mm 0,0 UV-I 30 W/m 2,2 C 1,9 C 11,3 km/h (2 Bft) 100,00 %
15.12.2016 09:00 2,5 C 98 % 1029,1 hPa 0,0 l/m 8,0 km/h (2 Bft) NO 42 0 min 0,000 mm 0,0 UV-I 32 W/m 2,2 C 1,0 C 12,9 km/h (3 Bft) 100,00 %
15.12.2016 09:02 2,5 C 98 % 1029,1 hPa 0,0 l/m 9,5 km/h (2 Bft) O-NO 61 0 min 0,000 mm 0,0 UV-I 33 W/m 2,2 C -0,3 C 14,5 km/h (3 Bft) 100,00 %
15.12.2016 09:04 2,4 C 98 % 1029,1 hPa 0,0 l/m 12,1 km/h (2 Bft) NO 55 0 min 0,000 mm 0,0 UV-I 32 W/m 2,1 C -2,3 C 16,1 km/h (3 Bft) 100,00 %
15.12.2016 09:06 2,4 C 98 % 1029,1 hPa 0,0 l/m 12,4 km/h (3 Bft) NO 54 0 min 0,000 mm 0,0 UV-I 35 W/m 2,1 C -2,5 C 16,1 km/h (3 Bft) 100,00 %
15.12.2016 09:08 2,4 C 98 % 1029,2 hPa 0,0 l/m 7,6 km/h (2 Bft) O-NO 57 0 min 0,000 mm 0,0 UV-I 32 W/m 2,1 C 1,2 C 11,3 km/h (2 Bft) 100,00 %
15.12.2016 09:10 2,5 C 98 % 1029,2 hPa 0,0 l/m 7,7 km/h (2 Bft) O-NO 63 0 min 0,000 mm 0,0 UV-I 30 W/m 2,2 C 1,3 C 12,9 km/h (3 Bft) 100,00 %
15.12.2016 09:12 2,5 C 98 % 1029,2 hPa 0,0 l/m 7,9 km/h (2 Bft) NO 50 0 min 0,000 mm 0,0 UV-I 36 W/m 2,2 C 1,1 C 12,9 km/h (3 Bft) 97,56 %
15.12.2016 09:14 2,5 C 98 % 1029,2 hPa 0,0 l/m 6,9 km/h (2 Bft) O-NO 60 0 min 0,000 mm 0,0 UV-I 40 W/m 2,2 C 2,0 C 9,7 km/h (2 Bft) 94,34 %
15.12.2016 09:16 2,6 C 98 % 1029,2 hPa 0,0 l/m 7,4 km/h (2 Bft) NO 36 0 min 0,000 mm 0,0 UV-I 33 W/m 2,3 C 1,6 C 16,1 km/h (3 Bft) 98,00 %
15.12.2016 09:18 2,6 C 98 % 1029,2 hPa 0,0 l/m 9,7 km/h (2 Bft) NO 40 0 min 0,000 mm 0,0 UV-I 37 W/m 2,3 C -0,3 C 16,1 km/h (3 Bft) 97,14 %
15.12.2016 09:20 2,7 C 98 % 1029,3 hPa 0,0 l/m 8,0 km/h (2 Bft) NO 52 0 min 0,000 mm 0,0 UV-I 35 W/m 2,4 C 1,2 C 16,1 km/h (3 Bft) 95,74 %
15.12.2016 09:22 2,7 C 98 % 1029,2 hPa 0,0 l/m 10,1 km/h (2 Bft) NO 50 0 min 0,000 mm 0,0 UV-I 43 W/m 2,4 C -0,5 C 14,5 km/h (3 Bft) 97,56 %
15.12.2016 09:24 2,7 C 98 % 1029,3 hPa 0,0 l/m 9,6 km/h (2 Bft) O-NO 71 0 min 0,000 mm 0,0 UV-I 50 W/m 2,4 C -0,2 C 16,1 km/h (3 Bft) 98,18 %
15.12.2016 09:26 2,7 C 98 % 1029,3 hPa 0,0 l/m 9,2 km/h (2 Bft) NO 54 0 min 0,000 mm 0,0 UV-I 55 W/m 2,4 C 0,2 C 12,9 km/h (3 Bft) 98,21 %
15.12.2016 09:28 2,7 C 98 % 1029,3 hPa 0,0 l/m 10,2 km/h (2 Bft) O-NO 78 0 min 0,000 mm 0,0 UV-I 49 W/m 2,4 C -0,6 C 16,1 km/h (3 Bft) 97,56 %
15.12.2016 09:30 2,6 C 98 % 1029,3 hPa 0,0 l/m 12,3 km/h (3 Bft) O-NO 67 0 min 0,000 mm 0,0 UV-I 53 W/m 2,3 C -2,2 C 16,1 km/h (3 Bft) 96,00 %
15.12.2016 09:32 2,6 C 98 % 1029,4 hPa 0,0 l/m 11,0 km/h (2 Bft) O-NO 67 0 min 0,000 mm 0,0 UV-I 54 W/m 2,3 C -1,3 C 19,3 km/h (3 Bft) 100,00 %
15.12.2016 09:34 2,6 C 98 % 1029,3 hPa 0,0 l/m 15,6 km/h (3 Bft) O-NO 64 0 min 0,000 mm 0,0 UV-I 57 W/m 2,3 C -4,2 C 19,3 km/h (3 Bft) 94,83 %
15.12.2016 09:36 2,5 C 98 % 1029,4 hPa 0,0 l/m 17,0 km/h (3 Bft) O-NO 63 0 min 0,000 mm 0,0 UV-I 60 W/m 2,2 C -5,0 C 20,9 km/h (4 Bft) 97,62 %
15.12.2016 09:38 2,5 C 98 % 1029,4 hPa 0,0 l/m 15,7 km/h (3 Bft) O 84 0 min 0,000 mm 0,0 UV-I 55 W/m 2,2 C -4,3 C 19,3 km/h (3 Bft) 96,15 %
15.12.2016 09:40 2,5 C 98 % 1029,4 hPa 0,0 l/m 14,9 km/h (3 Bft) O 79 0 min 0,000 mm 0,0 UV-I 48 W/m 2,2 C -3,9 C 20,9 km/h (4 Bft) 95,56 %
15.12.2016 09:42 2,5 C 98 % 1029,4 hPa 0,0 l/m 17,1 km/h (3 Bft) NO 53 0 min 0,000 mm 0,0 UV-I 52 W/m 2,2 C -5,1 C 20,9 km/h (4 Bft) 97,56 %
15.12.2016 09:44 2,4 C 98 % 1029,4 hPa 0,0 l/m 13,3 km/h (3 Bft) NO 46 0 min 0,000 mm 0,0 UV-I 64 W/m 2,1 C -3,1 C 19,3 km/h (3 Bft) 98,00 %
15.12.2016 09:46 2,4 C 98 % 1029,5 hPa 0,0 l/m 11,4 km/h (2 Bft) O-NO 61 0 min 0,000 mm 0,0 UV-I 60 W/m 2,1 C -1,8 C 16,1 km/h (3 Bft) 96,00 %
15.12.2016 09:48 2,4 C 98 % 1029,5 hPa 0,0 l/m 10,6 km/h (2 Bft) NO 55 0 min 0,000 mm 0,0 UV-I 52 W/m 2,1 C -1,3 C 16,1 km/h (3 Bft) 100,00 %
15.12.2016 09:50 2,4 C 98 % 1029,5 hPa 0,0 l/m 13,1 km/h (3 Bft) O-NO 65 0 min 0,000 mm 0,0 UV-I 62 W/m 2,1 C -3,0 C 19,3 km/h (3 Bft) 100,00 %
15.12.2016 09:52 2,4 C 98 % 1029,6 hPa 0,0 l/m 13,0 km/h (3 Bft) NO 44 0 min 0,000 mm 0,0 UV-I 73 W/m 2,1 C -2,9 C 17,7 km/h (3 Bft) 97,56 %
15.12.2016 09:54 2,4 C 98 % 1029,5 hPa 0,0 l/m 11,1 km/h (2 Bft) O-NO 75 0 min 0,000 mm 0,0 UV-I 54 W/m 2,1 C -1,6 C 17,7 km/h (3 Bft) 100,00 %
15.12.2016 09:56 2,4 C 98 % 1029,5 hPa 0,0 l/m 14,6 km/h (3 Bft) O-NO 61 0 min 0,000 mm 0,0 UV-I 59 W/m 2,1 C -3,8 C 17,7 km/h (3 Bft) 100,00 %
15.12.2016 09:58 2,4 C 98 % 1029,5 hPa 0,0 l/m 15,5 km/h (3 Bft) NO 45 0 min 0,000 mm 0,0 UV-I 63 W/m 2,1 C -4,3 C 19,3 km/h (3 Bft) 100,00 %
15.12.2016 10:00 2,4 C 98 % 1029,5 hPa 0,0 l/m 11,1 km/h (2 Bft) NO 55 0 min 0,025 mm 0,0 UV-I 70 W/m 2,1 C -1,6 C 17,7 km/h (3 Bft) 98,11 %
15.12.2016 10:02 2,4 C 98 % 1029,5 hPa 0,0 l/m 12,8 km/h (3 Bft) O-NO 61 0 min 0,000 mm 0,0 UV-I 79 W/m 2,1 C -2,8 C 16,1 km/h (3 Bft) 100,00 %
15.12.2016 10:04 2,4 C 98 % 1029,5 hPa 0,0 l/m 10,2 km/h (2 Bft) NO 44 0 min 0,000 mm 0,0 UV-I 73 W/m 2,1 C -1,0 C 17,7 km/h (3 Bft) 100,00 %
15.12.2016 10:06 2,4 C 98 % 1029,5 hPa 0,0 l/m 11,2 km/h (2 Bft) O-NO 64 0 min 0,000 mm 0,0 UV-I 67 W/m 2,1 C -1,7 C 17,7 km/h (3 Bft) 98,11 %
15.12.2016 10:08 2,4 C 98 % 1029,4 hPa 0,0 l/m 9,2 km/h (2 Bft) O-NO 65 0 min 0,000 mm 0,0 UV-I 67 W/m 2,1 C -0,2 C 16,1 km/h (3 Bft) 100,00 %
15.12.2016 10:10 2,4 C 98 % 1029,5 hPa 0,0 l/m 6,4 km/h (2 Bft) NO 36 0 min 0,000 mm 0,0 UV-I 65 W/m 2,1 C 2,4 C 9,7 km/h (2 Bft) 100,00 %
15.12.2016 10:12 2,5 C 98 % 1029,5 hPa 0,0 l/m 7,1 km/h (2 Bft) NO 44 0 min 0,000 mm 0,0 UV-I 66 W/m 2,2 C 1,8 C 9,7 km/h (2 Bft) 98,11 %
15.12.2016 10:14 2,5 C 98 % 1029,5 hPa 0,0 l/m 7,8 km/h (2 Bft) NO 40 0 min 0,000 mm 0,0 UV-I 60 W/m 2,2 C 1,2 C 11,3 km/h (2 Bft) 100,00 %
15.12.2016 10:16 2,6 C 98 % 1029,5 hPa 0,0 l/m 6,3 km/h (2 Bft) NO 39 0 min 0,000 mm 0,0 UV-I 54 W/m 2,3 C 2,6 C 14,5 km/h (3 Bft) 100,00 %
15.12.2016 10:18 2,6 C 98 % 1029,5 hPa 0,0 l/m 10,8 km/h (2 Bft) O-NO 65 0 min 0,000 mm 0,0 UV-I 61 W/m 2,3 C -1,2 C 14,5 km/h (3 Bft) 97,37 %
15.12.2016 10:20 2,5 C 98 % 1029,5 hPa 0,0 l/m 8,4 km/h (2 Bft) NO 51 0 min 0,000 mm 0,0 UV-I 62 W/m 2,2 C 0,6 C 16,1 km/h (3 Bft) 100,00 %
15.12.2016 10:22 2,5 C 98 % 1029,5 hPa 0,0 l/m 10,9 km/h (2 Bft) NO 49 0 min 0,000 mm 0,0 UV-I 60 W/m 2,2 C -1,4 C 16,1 km/h (3 Bft) 100,00 %
15.12.2016 10:24 2,5 C 98 % 1029,4 hPa 0,0 l/m 13,1 km/h (3 Bft) NO 55 0 min 0,000 mm 0,0 UV-I 72 W/m 2,2 C -2,8 C 17,7 km/h (3 Bft) 100,00 %
15.12.2016 10:26 2,4 C 98 % 1029,4 hPa 0,0 l/m 12,0 km/h (2 Bft) NO 55 0 min 0,000 mm 0,0 UV-I 63 W/m 2,1 C -2,2 C 16,1 km/h (3 Bft) 97,73 %
15.12.2016 10:28 2,4 C 98 % 1029,4 hPa 0,0 l/m 14,7 km/h (3 Bft) O-NO 57 0 min 0,000 mm 0,0 UV-I 64 W/m 2,1 C -3,9 C 20,9 km/h (4 Bft) 98,11 %
15.12.2016 10:30 2,3 C 98 % 1029,4 hPa 0,0 l/m 14,2 km/h (3 Bft) O-NO 69 0 min 0,000 mm 0,0 UV-I 65 W/m 2,0 C -3,7 C 19,3 km/h (3 Bft) 100,00 %
15.12.2016 10:32 2,3 C 98 % 1029,3 hPa 0,0 l/m 17,4 km/h (3 Bft) O-NO 65 0 min 0,000 mm 0,0 UV-I 66 W/m 2,0 C -5,5 C 22,5 km/h (4 Bft) 100,00 %
15.12.2016 10:34 2,2 C 98 % 1029,3 hPa 0,0 l/m 16,9 km/h (3 Bft) O-NO 62 0 min 0,000 mm 0,0 UV-I 68 W/m 1,9 C -5,3 C 22,5 km/h (4 Bft) 100,00 %
15.12.2016 10:36 2,2 C 98 % 1029,3 hPa 0,0 l/m 15,7 km/h (3 Bft) O-NO 61 0 min 0,000 mm 0,0 UV-I 74 W/m 1,9 C -4,7 C 20,9 km/h (4 Bft) 100,00 %
15.12.2016 10:38 2,2 C 98 % 1029,3 hPa 0,0 l/m 14,3 km/h (3 Bft) O-NO 69 0 min 0,000 mm 0,0 UV-I 74 W/m 1,9 C -3,9 C 19,3 km/h (3 Bft) 100,00 %
15.12.2016 10:40 2,2 C 98 % 1029,2 hPa 0,0 l/m 14,9 km/h (3 Bft) O-NO 58 0 min 0,000 mm 0,0 UV-I 77 W/m 1,9 C -4,3 C 19,3 km/h (3 Bft) 100,00 %
15.12.2016 10:42 2,2 C 98 % 1029,2 hPa 0,0 l/m 11,9 km/h (2 Bft) O-NO 67 0 min 0,000 mm 0,0 UV-I 72 W/m 1,9 C -2,4 C 17,7 km/h (3 Bft) 100,00 %
15.12.2016 10:44 2,3 C 98 % 1029,2 hPa 0,0 l/m 13,4 km/h (3 Bft) NO 44 0 min 0,000 mm 0,0 UV-I 65 W/m 2,0 C -3,3 C 19,3 km/h (3 Bft) 97,56 %
15.12.2016 10:46 2,3 C 98 % 1029,2 hPa 0,0 l/m 15,7 km/h (3 Bft) O-NO 71 0 min 0,000 mm 0,0 UV-I 70 W/m 2,0 C -4,6 C 20,9 km/h (4 Bft) 100,00 %
15.12.2016 10:48 2,2 C 98 % 1029,2 hPa 0,0 l/m 17,4 km/h (3 Bft) O 82 0 min 0,000 mm 0,0 UV-I 75 W/m 1,9 C -5,6 C 24,1 km/h (4 Bft) 97,56 %
15.12.2016 10:50 2,2 C 98 % 1029,2 hPa 0,0 l/m 16,3 km/h (3 Bft) O-NO 68 0 min 0,000 mm 0,0 UV-I 86 W/m 1,9 C -5,0 C 20,9 km/h (4 Bft) 100,00 %
15.12.2016 10:52 2,2 C 98 % 1029,3 hPa 0,0 l/m 17,7 km/h (3 Bft) NO 44 0 min 0,000 mm 0,0 UV-I 77 W/m 1,9 C -5,7 C 24,1 km/h (4 Bft) 100,00 %
15.12.2016 10:54 2,2 C 98 % 1029,2 hPa 0,0 l/m 15,1 km/h (3 Bft) NO 53 0 min 0,000 mm 0,0 UV-I 71 W/m 1,9 C -4,4 C 22,5 km/h (4 Bft) 97,87 %
15.12.2016 10:56 2,3 C 98 % 1029,3 hPa 0,0 l/m 15,9 km/h (3 Bft) NO 39 0 min 0,000 mm 0,0 UV-I 71 W/m 2,0 C -4,7 C 20,9 km/h (4 Bft) 97,87 %
15.12.2016 10:58 2,3 C 98 % 1029,3 hPa 0,0 l/m 12,8 km/h (3 Bft) O 86 0 min 0,000 mm 0,0 UV-I 75 W/m 2,0 C -2,9 C 17,7 km/h (3 Bft) 97,87 %
15.12.2016 11:00 2,3 C 98 % 1029,3 hPa 0,0 l/m 17,7 km/h (3 Bft) O-NO 67 0 min 0,026 mm 0,0 UV-I 88 W/m 2,0 C -5,6 C 22,5 km/h (4 Bft) 97,73 %
15.12.2016 11:02 2,3 C 98 % 1029,3 hPa 0,0 l/m 13,2 km/h (3 Bft) O-NO 57 0 min 0,000 mm 0,0 UV-I 80 W/m 2,0 C -3,1 C 20,9 km/h (4 Bft) 100,00 %
15.12.2016 11:04 2,3 C 98 % 1029,2 hPa 0,0 l/m 15,8 km/h (3 Bft) NO 43 0 min 0,000 mm 0,0 UV-I 76 W/m 2,0 C -4,6 C 22,5 km/h (4 Bft) 100,00 %
15.12.2016 11:06 2,4 C 99 % 1029,3 hPa 0,0 l/m 15,8 km/h (3 Bft) O 82 0 min 0,000 mm 0,0 UV-I 72 W/m 2,3 C -4,5 C 20,9 km/h (4 Bft) 98,11 %
15.12.2016 11:08 2,4 C 99 % 1029,2 hPa 0,0 l/m 16,5 km/h (3 Bft) O 83 0 min 0,000 mm 0,0 UV-I 82 W/m 2,3 C -4,9 C 22,5 km/h (4 Bft) 95,74 %
15.12.2016 11:10 2,4 C 99 % 1029,2 hPa 0,0 l/m 18,9 km/h (3 Bft) NO 51 0 min 0,000 mm 0,0 UV-I 90 W/m 2,3 C -6,0 C 24,1 km/h (4 Bft) 100,00 %
15.12.2016 11:12 2,4 C 99 % 1029,2 hPa 0,0 l/m 14,8 km/h (3 Bft) O-NO 67 0 min 0,000 mm 0,0 UV-I 81 W/m 2,3 C -4,0 C 20,9 km/h (4 Bft) 100,00 %
15.12.2016 11:16 2,4 C 99 % 1029,2 hPa 0,0 l/m 12,1 km/h (2 Bft) O-NO 78 0 min 0,000 mm 0,0 UV-I 71 W/m 2,3 C -2,3 C 14,5 km/h (3 Bft) 96,77 %
15.12.2016 11:18 2,4 C 99 % 1029,2 hPa 0,0 l/m 15,1 km/h (3 Bft) O-NO 58 0 min 0,000 mm 0,0 UV-I 65 W/m 2,3 C -4,1 C 20,9 km/h (4 Bft) 97,87 %
15.12.2016 11:20 2,4 C 99 % 1029,2 hPa 0,0 l/m 15,4 km/h (3 Bft) NO 44 0 min 0,000 mm 0,0 UV-I 67 W/m 2,3 C -4,3 C 24,1 km/h (4 Bft) 98,00 %
15.12.2016 11:22 2,4 C 99 % 1029,2 hPa 0,0 l/m 16,8 km/h (3 Bft) O-NO 67 0 min 0,000 mm 0,0 UV-I 75 W/m 2,3 C -5,0 C 22,5 km/h (4 Bft) 94,29 %
15.12.2016 11:24 2,4 C 99 % 1029,2 hPa 0,0 l/m 13,2 km/h (3 Bft) NO 53 0 min 0,000 mm 0,0 UV-I 93 W/m 2,3 C -3,0 C 22,5 km/h (4 Bft) 98,21 %
15.12.2016 11:26 2,3 C 98 % 1029,2 hPa 0,0 l/m 21,2 km/h (4 Bft) N-NO 25 0 min 0,000 mm 0,0 UV-I 99 W/m 2,0 C -7,2 C 27,4 km/h (4 Bft) 97,73 %
15.12.2016 11:28 2,3 C 98 % 1029,2 hPa 0,0 l/m 21,2 km/h (4 Bft) O-NO 64 0 min 0,000 mm 0,0 UV-I 98 W/m 2,0 C -7,2 C 27,4 km/h (4 Bft) 96,23 %
15.12.2016 11:30 2,3 C 98 % 1029,1 hPa 0,0 l/m 19,6 km/h (3 Bft) O-NO 60 0 min 0,000 mm 0,0 UV-I 113 W/m 2,0 C -6,5 C 27,4 km/h (4 Bft) 95,45 %
15.12.2016 11:32 2,2 C 98 % 1029,2 hPa 0,0 l/m 19,5 km/h (3 Bft) O 80 0 min 0,000 mm 0,0 UV-I 89 W/m 1,9 C -6,6 C 25,7 km/h (4 Bft) 92,68 %
15.12.2016 11:34 2,2 C 98 % 1029,2 hPa 0,0 l/m 16,9 km/h (3 Bft) O-NO 66 0 min 0,000 mm 0,0 UV-I 90 W/m 1,9 C -5,3 C 22,5 km/h (4 Bft) 95,74 %
15.12.2016 11:36 2,2 C 98 % 1029,2 hPa 0,0 l/m 15,0 km/h (3 Bft) O 80 0 min 0,000 mm 0,0 UV-I 110 W/m 1,9 C -4,3 C 22,5 km/h (4 Bft) 98,00 %
15.12.2016 11:38 2,3 C 98 % 1029,2 hPa 0,0 l/m 16,0 km/h (3 Bft) O 79 0 min 0,000 mm 0,0 UV-I 101 W/m 2,0 C -4,7 C 22,5 km/h (4 Bft) 97,73 %
15.12.2016 11:40 2,3 C 98 % 1029,2 hPa 0,0 l/m 17,6 km/h (3 Bft) O-NO 65 0 min 0,000 mm 0,0 UV-I 112 W/m 2,0 C -5,6 C 22,5 km/h (4 Bft) 96,23 %
15.12.2016 11:42 2,3 C 98 % 1029,1 hPa 0,0 l/m 14,4 km/h (3 Bft) O 90 0 min 0,000 mm 0,0 UV-I 156 W/m 2,0 C -3,9 C 19,3 km/h (3 Bft) 97,62 %
15.12.2016 11:44 2,3 C 98 % 1029,1 hPa 0,0 l/m 13,6 km/h (3 Bft) O-NO 69 2 min 0,000 mm 0,0 UV-I 181 W/m 2,0 C -3,4 C 19,3 km/h (3 Bft) 95,12 %
15.12.2016 11:46 2,4 C 98 % 1029,2 hPa 0,0 l/m 12,3 km/h (3 Bft) O-NO 61 2 min 0,000 mm 0,0 UV-I 267 W/m 2,1 C -2,4 C 17,7 km/h (3 Bft) 97,87 %
15.12.2016 11:48 2,4 C 98 % 1029,1 hPa 0,0 l/m 17,3 km/h (3 Bft) O 94 2 min 0,000 mm 0,0 UV-I 234 W/m 2,1 C -5,3 C 20,9 km/h (4 Bft) 96,00 %
15.12.2016 11:50 2,6 C 98 % 1029,2 hPa 0,0 l/m 12,7 km/h (3 Bft) NO 39 2 min 0,000 mm 0,2 UV-I 221 W/m 2,3 C -2,5 C 17,7 km/h (3 Bft) 97,87 %
15.12.2016 11:52 2,6 C 98 % 1029,2 hPa 0,0 l/m 16,2 km/h (3 Bft) NO 44 2 min 0,000 mm 0,0 UV-I 267 W/m 2,3 C -4,5 C 20,9 km/h (4 Bft) 100,00 %
15.12.2016 11:54 2,6 C 98 % 1029,2 hPa 0,0 l/m 15,7 km/h (3 Bft) O-NO 61 2 min 0,000 mm 0,0 UV-I 237 W/m 2,3 C -4,2 C 22,5 km/h (4 Bft) 97,73 %
15.12.2016 11:56 2,6 C 98 % 1029,2 hPa 0,0 l/m 12,3 km/h (3 Bft) O 90 2 min 0,000 mm 0,0 UV-I 254 W/m 2,3 C -2,2 C 22,5 km/h (4 Bft) 100,00 %
15.12.2016 11:58 2,7 C 98 % 1029,2 hPa 0,0 l/m 12,8 km/h (3 Bft) O 97 2 min 0,000 mm 0,0 UV-I 260 W/m 2,4 C -2,4 C 20,9 km/h (4 Bft) 96,15 %
15.12.2016 12:00 2,9 C 98 % 1029,2 hPa 0,0 l/m 9,3 km/h (2 Bft) O-NO 71 2 min 0,051 mm 0,2 UV-I 250 W/m 2,6 C 0,3 C 14,5 km/h (3 Bft) 100,00 %
15.12.2016 12:02 2,9 C 98 % 1029,1 hPa 0,0 l/m 10,8 km/h (2 Bft) NO 53 2 min 0,000 mm 0,0 UV-I 251 W/m 2,6 C -0,8 C 16,1 km/h (3 Bft) 100,00 %
15.12.2016 12:04 3,0 C 98 % 1029,1 hPa 0,0 l/m 11,8 km/h (2 Bft) O-NO 66 2 min 0,000 mm 0,1 UV-I 260 W/m 2,7 C -1,4 C 16,1 km/h (3 Bft) 100,00 %
15.12.2016 12:06 3,1 C 98 % 1029,1 hPa 0,0 l/m 13,6 km/h (3 Bft) O 85 2 min 0,000 mm 0,5 UV-I 311 W/m 2,8 C -2,4 C 17,7 km/h (3 Bft) 100,00 %
15.12.2016 12:08 3,1 C 98 % 1029,1 hPa 0,0 l/m 16,3 km/h (3 Bft) O-NO 61 2 min 0,000 mm 0,5 UV-I 316 W/m 2,8 C -3,9 C 22,5 km/h (4 Bft) 97,37 %
15.12.2016 12:10 3,2 C 98 % 1029,0 hPa 0,0 l/m 16,3 km/h (3 Bft) O 95 2 min 0,000 mm 0,5 UV-I 374 W/m 2,9 C -3,8 C 24,1 km/h (4 Bft) 100,00 %
15.12.2016 12:12 3,3 C 97 % 1029,1 hPa 0,0 l/m 15,5 km/h (3 Bft) O 86 2 min 0,000 mm 0,5 UV-I 318 W/m 2,9 C -3,3 C 22,5 km/h (4 Bft) 100,00 %
15.12.2016 12:14 3,2 C 97 % 1029,1 hPa 0,0 l/m 14,1 km/h (3 Bft) O-NO 77 0 min 0,000 mm 0,3 UV-I 149 W/m 2,8 C -2,6 C 19,3 km/h (3 Bft) 97,56 %
15.12.2016 12:16 3,1 C 97 % 1029,0 hPa 0,0 l/m 14,0 km/h (3 Bft) O-NO 67 0 min 0,000 mm 0,4 UV-I 158 W/m 2,7 C -2,7 C 22,5 km/h (4 Bft) 100,00 %
15.12.2016 12:18 3,1 C 96 % 1029,0 hPa 0,0 l/m 16,4 km/h (3 Bft) O 86 0 min 0,000 mm 0,1 UV-I 116 W/m 2,5 C -4,0 C 22,5 km/h (4 Bft) 100,00 %
15.12.2016 12:20 3,1 C 96 % 1029,0 hPa 0,0 l/m 13,3 km/h (3 Bft) O 84 2 min 0,000 mm 0,5 UV-I 282 W/m 2,5 C -2,2 C 17,7 km/h (3 Bft) 96,43 %
15.12.2016 12:22 3,1 C 96 % 1029,0 hPa 0,0 l/m 14,2 km/h (3 Bft) O 88 0 min 0,000 mm 0,5 UV-I 161 W/m 2,5 C -2,8 C 19,3 km/h (3 Bft) 100,00 %
15.12.2016 12:24 3,2 C 96 % 1028,9 hPa 0,0 l/m 15,3 km/h (3 Bft) O 86 2 min 0,000 mm 0,5 UV-I 300 W/m 2,6 C -3,3 C 20,9 km/h (4 Bft) 100,00 %
15.12.2016 12:26 3,2 C 96 % 1028,9 hPa 0,0 l/m 14,0 km/h (3 Bft) O-NO 66 2 min 0,000 mm 0,5 UV-I 295 W/m 2,6 C -2,5 C 19,3 km/h (3 Bft) 100,00 %
15.12.2016 12:28 3,2 C 95 % 1028,8 hPa 0,0 l/m 14,4 km/h (3 Bft) O-NO 68 2 min 0,000 mm 0,5 UV-I 306 W/m 2,5 C -2,8 C 22,5 km/h (4 Bft) 100,00 %
15.12.2016 12:30 3,2 C 95 % 1028,8 hPa 0,0 l/m 12,8 km/h (3 Bft) O-NO 66 2 min 0,000 mm 0,5 UV-I 311 W/m 2,5 C -1,8 C 19,3 km/h (3 Bft) 97,56 %
15.12.2016 12:32 3,2 C 95 % 1028,8 hPa 0,0 l/m 12,3 km/h (3 Bft) O-NO 64 2 min 0,000 mm 0,5 UV-I 196 W/m 2,5 C -1,5 C 17,7 km/h (3 Bft) 97,87 %
15.12.2016 12:34 3,2 C 95 % 1028,8 hPa 0,0 l/m 13,3 km/h (3 Bft) NO 53 2 min 0,000 mm 0,5 UV-I 264 W/m 2,5 C -2,1 C 17,7 km/h (3 Bft) 100,00 %
15.12.2016 12:36 3,3 C 95 % 1028,7 hPa 0,0 l/m 12,4 km/h (3 Bft) O-NO 58 2 min 0,000 mm 0,5 UV-I 313 W/m 2,6 C -1,5 C 16,1 km/h (3 Bft) 100,00 %
15.12.2016 12:38 3,3 C 94 % 1028,6 hPa 0,0 l/m 13,8 km/h (3 Bft) O 79 2 min 0,000 mm 0,3 UV-I 308 W/m 2,4 C -2,3 C 19,3 km/h (3 Bft) 100,00 %
15.12.2016 12:40 3,3 C 94 % 1028,7 hPa 0,0 l/m 11,8 km/h (2 Bft) O-NO 68 0 min 0,000 mm 0,0 UV-I 151 W/m 2,4 C -1,1 C 17,7 km/h (3 Bft) 100,00 %
15.12.2016 12:42 3,3 C 94 % 1028,6 hPa 0,0 l/m 14,1 km/h (3 Bft) NO 43 0 min 0,000 mm 0,2 UV-I 113 W/m 2,4 C -2,5 C 20,9 km/h (4 Bft) 100,00 %
15.12.2016 12:44 3,3 C 94 % 1028,6 hPa 0,0 l/m 15,9 km/h (3 Bft) O-NO 65 0 min 0,000 mm 0,0 UV-I 99 W/m 2,4 C -3,5 C 20,9 km/h (4 Bft) 100,00 %
15.12.2016 12:46 3,3 C 93 % 1028,6 hPa 0,0 l/m 17,1 km/h (3 Bft) O-NO 73 0 min 0,000 mm 0,0 UV-I 80 W/m 2,3 C -4,1 C 25,7 km/h (4 Bft) 100,00 %
15.12.2016 12:48 3,3 C 93 % 1028,6 hPa 0,0 l/m 14,1 km/h (3 Bft) NO 55 0 min 0,000 mm 0,1 UV-I 77 W/m 2,3 C -2,5 C 17,7 km/h (3 Bft) 100,00 %
15.12.2016 12:50 3,3 C 93 % 1028,6 hPa 0,0 l/m 14,9 km/h (3 Bft) O-NO 69 0 min 0,000 mm 0,3 UV-I 91 W/m 2,3 C -2,9 C 22,5 km/h (4 Bft) 100,00 %
15.12.2016 12:52 3,4 C 93 % 1028,5 hPa 0,0 l/m 14,6 km/h (3 Bft) NO 37 2 min 0,000 mm 0,3 UV-I 214 W/m 2,4 C -2,6 C 19,3 km/h (3 Bft) 100,00 %
15.12.2016 12:54 3,4 C 93 % 1028,5 hPa 0,0 l/m 16,0 km/h (3 Bft) O-NO 75 2 min 0,000 mm 0,1 UV-I 292 W/m 2,4 C -3,4 C 19,3 km/h (3 Bft) 98,11 %
15.12.2016 12:56 3,6 C 93 % 1028,5 hPa 0,0 l/m 14,3 km/h (3 Bft) O-NO 65 2 min 0,000 mm 0,0 UV-I 299 W/m 2,6 C -2,2 C 19,3 km/h (3 Bft) 98,21 %
15.12.2016 12:58 3,7 C 93 % 1028,4 hPa 0,0 l/m 11,0 km/h (2 Bft) O 82 2 min 0,000 mm 0,0 UV-I 318 W/m 2,7 C -0,1 C 17,7 km/h (3 Bft) 100,00 %
15.12.2016 13:00 3,8 C 92 % 1028,4 hPa 0,0 l/m 12,8 km/h (3 Bft) NO 51 2 min 0,101 mm 0,0 UV-I 300 W/m 2,6 C -1,1 C 17,7 km/h (3 Bft) 95,12 %
15.12.2016 13:02 3,9 C 92 % 1028,3 hPa 0,0 l/m 15,3 km/h (3 Bft) O-NO 76 2 min 0,000 mm 0,0 UV-I 260 W/m 2,7 C -2,4 C 20,9 km/h (4 Bft) 97,87 %
15.12.2016 13:04 3,9 C 91 % 1028,3 hPa 0,0 l/m 15,0 km/h (3 Bft) NO 55 2 min 0,000 mm 0,0 UV-I 260 W/m 2,6 C -2,3 C 20,9 km/h (4 Bft) 96,00 %
15.12.2016 13:06 3,9 C 91 % 1028,3 hPa 0,0 l/m 18,5 km/h (3 Bft) O-NO 64 2 min 0,000 mm 0,0 UV-I 256 W/m 2,6 C -4,0 C 25,7 km/h (4 Bft) 94,87 %
15.12.2016 13:08 3,9 C 90 % 1028,3 hPa 0,0 l/m 17,3 km/h (3 Bft) NO 52 2 min 0,000 mm 0,0 UV-I 297 W/m 2,4 C -3,4 C 24,1 km/h (4 Bft) 96,00 %
15.12.2016 13:10 4,0 C 90 % 1028,2 hPa 0,0 l/m 18,1 km/h (3 Bft) O 79 2 min 0,000 mm 0,0 UV-I 316 W/m 2,5 C -3,6 C 24,1 km/h (4 Bft) 98,11 %
15.12.2016 13:12 4,0 C 90 % 1028,2 hPa 0,0 l/m 17,5 km/h (3 Bft) O 84 2 min 0,000 mm 0,0 UV-I 307 W/m 2,5 C -3,4 C 25,7 km/h (4 Bft) 97,56 %
15.12.2016 13:14 4,1 C 89 % 1028,2 hPa 0,0 l/m 15,2 km/h (3 Bft) O-NO 63 2 min 0,000 mm 0,0 UV-I 301 W/m 2,5 C -2,1 C 24,1 km/h (4 Bft) 94,34 %
15.12.2016 13:16 4,2 C 89 % 1028,1 hPa 0,0 l/m 14,3 km/h (3 Bft) O 82 2 min 0,000 mm 0,0 UV-I 281 W/m 2,6 C -1,5 C 19,3 km/h (3 Bft) 97,37 %
15.12.2016 13:18 4,2 C 89 % 1028,1 hPa 0,0 l/m 15,3 km/h (3 Bft) O-NO 71 2 min 0,000 mm 0,0 UV-I 241 W/m 2,6 C -2,0 C 22,5 km/h (4 Bft) 93,62 %
15.12.2016 13:20 4,3 C 89 % 1028,1 hPa 0,0 l/m 15,6 km/h (3 Bft) O-NO 65 2 min 0,000 mm 0,0 UV-I 222 W/m 2,7 C -2,1 C 22,5 km/h (4 Bft) 98,21 %
15.12.2016 13:22 4,3 C 89 % 1028,1 hPa 0,0 l/m 15,9 km/h (3 Bft) NO 49 2 min 0,000 mm 0,0 UV-I 325 W/m 2,7 C -2,2 C 19,3 km/h (3 Bft) 97,37 %
15.12.2016 13:24 4,3 C 88 % 1028,1 hPa 0,0 l/m 12,5 km/h (3 Bft) O 80 2 min 0,000 mm 0,0 UV-I 266 W/m 2,5 C -0,4 C 19,3 km/h (3 Bft) 98,11 %
15.12.2016 13:26 4,3 C 88 % 1028,1 hPa 0,0 l/m 19,0 km/h (3 Bft) O-NO 70 2 min 0,000 mm 0,0 UV-I 305 W/m 2,5 C -3,7 C 25,7 km/h (4 Bft) 93,10 %
15.12.2016 13:28 4,3 C 87 % 1028,0 hPa 0,0 l/m 17,7 km/h (3 Bft) O-NO 67 2 min 0,000 mm 0,0 UV-I 267 W/m 2,3 C -3,1 C 25,7 km/h (4 Bft) 98,11 %
15.12.2016 13:30 4,3 C 87 % 1028,0 hPa 0,0 l/m 16,4 km/h (3 Bft) O 88 0 min 0,000 mm 0,0 UV-I 129 W/m 2,3 C -2,5 C 22,5 km/h (4 Bft) 100,00 %
15.12.2016 13:32 4,2 C 87 % 1028,1 hPa 0,0 l/m 16,4 km/h (3 Bft) O-NO 65 0 min 0,000 mm 0,0 UV-I 63 W/m 2,2 C -2,6 C 20,9 km/h (4 Bft) 97,87 %
15.12.2016 13:34 4,2 C 87 % 1028,1 hPa 0,0 l/m 19,1 km/h (3 Bft) O-NO 62 0 min 0,000 mm 0,0 UV-I 58 W/m 2,2 C -3,8 C 29,0 km/h (5 Bft) 100,00 %
15.12.2016 13:36 4,1 C 87 % 1028,1 hPa 0,0 l/m 14,9 km/h (3 Bft) O-NO 61 0 min 0,000 mm 0,0 UV-I 62 W/m 2,1 C -2,0 C 20,9 km/h (4 Bft) 97,56 %
15.12.2016 13:38 4,0 C 87 % 1028,0 hPa 0,0 l/m 14,8 km/h (3 Bft) O-NO 70 0 min 0,000 mm 0,0 UV-I 57 W/m 2,0 C -2,0 C 20,9 km/h (4 Bft) 100,00 %
15.12.2016 13:40 3,9 C 87 % 1028,1 hPa 0,0 l/m 14,2 km/h (3 Bft) O-NO 60 0 min 0,000 mm 0,0 UV-I 64 W/m 1,9 C -1,8 C 22,5 km/h (4 Bft) 100,00 %
15.12.2016 13:42 3,9 C 88 % 1028,0 hPa 0,0 l/m 16,5 km/h (3 Bft) O-NO 64 0 min 0,000 mm 0,0 UV-I 60 W/m 2,1 C -3,0 C 25,7 km/h (4 Bft) 100,00 %
15.12.2016 13:44 3,8 C 88 % 1028,0 hPa 0,0 l/m 15,1 km/h (3 Bft) O 82 0 min 0,000 mm 0,0 UV-I 55 W/m 2,0 C -2,4 C 20,9 km/h (4 Bft) 100,00 %
15.12.2016 13:46 3,8 C 88 % 1028,1 hPa 0,0 l/m 16,0 km/h (3 Bft) O-NO 74 0 min 0,000 mm 0,0 UV-I 65 W/m 2,0 C -2,9 C 22,5 km/h (4 Bft) 100,00 %
15.12.2016 13:48 3,7 C 88 % 1028,0 hPa 0,0 l/m 12,7 km/h (3 Bft) O-NO 74 0 min 0,000 mm 0,0 UV-I 78 W/m 1,9 C -1,2 C 19,3 km/h (3 Bft) 100,00 %
15.12.2016 13:50 3,7 C 88 % 1028,1 hPa 0,0 l/m 16,1 km/h (3 Bft) O-NO 78 0 min 0,000 mm 0,0 UV-I 100 W/m 1,9 C -3,1 C 19,3 km/h (3 Bft) 100,00 %
15.12.2016 13:52 3,7 C 89 % 1028,1 hPa 0,0 l/m 13,7 km/h (3 Bft) O-NO 62 0 min 0,000 mm 0,0 UV-I 110 W/m 2,1 C -1,8 C 19,3 km/h (3 Bft) 98,21 %
15.12.2016 13:54 3,7 C 89 % 1028,1 hPa 0,0 l/m 14,3 km/h (3 Bft) O-NO 63 0 min 0,000 mm 0,0 UV-I 92 W/m 2,1 C -2,1 C 19,3 km/h (3 Bft) 100,00 %
15.12.2016 13:56 3,7 C 89 % 1028,1 hPa 0,0 l/m 17,1 km/h (3 Bft) O-NO 60 0 min 0,000 mm 0,0 UV-I 113 W/m 2,1 C -3,6 C 22,5 km/h (4 Bft) 100,00 %
15.12.2016 13:58 3,7 C 89 % 1028,1 hPa 0,0 l/m 16,9 km/h (3 Bft) O-NO 65 0 min 0,000 mm 0,0 UV-I 107 W/m 2,1 C -3,5 C 20,9 km/h (4 Bft) 100,00 %
15.12.2016 14:00 3,8 C 89 % 1028,1 hPa 0,0 l/m 16,1 km/h (3 Bft) O-NO 72 0 min 0,076 mm 0,0 UV-I 89 W/m 2,2 C -2,9 C 20,9 km/h (4 Bft) 97,56 %
15.12.2016 14:02 3,8 C 89 % 1028,1 hPa 0,0 l/m 16,5 km/h (3 Bft) O-NO 69 0 min 0,000 mm 0,0 UV-I 91 W/m 2,2 C -3,1 C 20,9 km/h (4 Bft) 98,00 %
15.12.2016 14:04 3,8 C 89 % 1028,1 hPa 0,0 l/m 14,9 km/h (3 Bft) O-NO 69 0 min 0,000 mm 0,0 UV-I 96 W/m 2,2 C -2,3 C 22,5 km/h (4 Bft) 100,00 %
15.12.2016 14:06 3,8 C 88 % 1028,1 hPa 0,0 l/m 15,7 km/h (3 Bft) O-NO 78 0 min 0,000 mm 0,0 UV-I 73 W/m 2,0 C -2,7 C 20,9 km/h (4 Bft) 100,00 %
15.12.2016 14:08 3,8 C 89 % 1028,1 hPa 0,0 l/m 15,4 km/h (3 Bft) O-NO 71 0 min 0,000 mm 0,0 UV-I 58 W/m 2,2 C -2,6 C 22,5 km/h (4 Bft) 100,00 %
15.12.2016 14:10 3,8 C 89 % 1028,2 hPa 0,0 l/m 17,2 km/h (3 Bft) O-NO 63 0 min 0,000 mm 0,0 UV-I 56 W/m 2,2 C -3,5 C 22,5 km/h (4 Bft) 98,00 %
15.12.2016 14:12 3,9 C 89 % 1028,1 hPa 0,0 l/m 17,2 km/h (3 Bft) O-NO 73 0 min 0,000 mm 0,0 UV-I 54 W/m 2,3 C -3,4 C 20,9 km/h (4 Bft) 100,00 %
15.12.2016 14:14 3,8 C 89 % 1028,2 hPa 0,0 l/m 14,7 km/h (3 Bft) O-NO 63 0 min 0,000 mm 0,0 UV-I 49 W/m 2,2 C -2,2 C 20,9 km/h (4 Bft) 100,00 %
15.12.2016 14:16 3,8 C 89 % 1028,2 hPa 0,0 l/m 16,3 km/h (3 Bft) O 84 0 min 0,000 mm 0,0 UV-I 47 W/m 2,2 C -3,0 C 24,1 km/h (4 Bft) 98,00 %
15.12.2016 14:18 3,8 C 89 % 1028,1 hPa 0,0 l/m 15,6 km/h (3 Bft) O-NO 75 0 min 0,000 mm 0,0 UV-I 52 W/m 2,2 C -2,7 C 20,9 km/h (4 Bft) 96,43 %
15.12.2016 14:20 3,9 C 89 % 1028,2 hPa 0,0 l/m 12,5 km/h (3 Bft) O-NO 64 0 min 0,000 mm 0,0 UV-I 54 W/m 2,3 C -0,8 C 17,7 km/h (3 Bft) 100,00 %
15.12.2016 14:22 3,8 C 89 % 1028,1 hPa 0,0 l/m 13,7 km/h (3 Bft) NO 48 0 min 0,000 mm 0,0 UV-I 54 W/m 2,2 C -1,7 C 19,3 km/h (3 Bft) 100,00 %
15.12.2016 14:24 3,9 C 89 % 1028,2 hPa 0,0 l/m 15,9 km/h (3 Bft) O-NO 69 0 min 0,000 mm 0,0 UV-I 55 W/m 2,3 C -2,7 C 22,5 km/h (4 Bft) 100,00 %
15.12.2016 14:26 3,8 C 89 % 1028,2 hPa 0,0 l/m 17,4 km/h (3 Bft) O-NO 75 0 min 0,000 mm 0,0 UV-I 56 W/m 2,2 C -3,6 C 25,7 km/h (4 Bft) 100,00 %
15.12.2016 14:28 3,8 C 88 % 1028,2 hPa 0,0 l/m 19,8 km/h (3 Bft) O-SO 103 0 min 0,000 mm 0,0 UV-I 54 W/m 2,0 C -4,6 C 29,0 km/h (5 Bft) 100,00 %
15.12.2016 14:30 3,8 C 88 % 1028,2 hPa 0,0 l/m 19,4 km/h (3 Bft) O 82 0 min 0,000 mm 0,0 UV-I 51 W/m 2,0 C -4,5 C 25,7 km/h (4 Bft) 100,00 %
15.12.2016 14:32 3,8 C 88 % 1028,1 hPa 0,0 l/m 19,3 km/h (3 Bft) O-SO 109 0 min 0,000 mm 0,0 UV-I 50 W/m 2,0 C -4,4 C 25,7 km/h (4 Bft) 100,00 %
15.12.2016 14:34 3,8 C 88 % 1028,2 hPa 0,0 l/m 16,3 km/h (3 Bft) NO 54 0 min 0,000 mm 0,0 UV-I 53 W/m 2,0 C -3,0 C 22,5 km/h (4 Bft) 100,00 %
15.12.2016 14:36 3,7 C 88 % 1028,2 hPa 0,0 l/m 17,0 km/h (3 Bft) O-NO 59 0 min 0,000 mm 0,0 UV-I 54 W/m 1,9 C -3,5 C 24,1 km/h (4 Bft) 100,00 %
15.12.2016 14:38 3,7 C 88 % 1028,2 hPa 0,0 l/m 13,3 km/h (3 Bft) O-NO 71 0 min 0,000 mm 0,0 UV-I 52 W/m 1,9 C -1,5 C 19,3 km/h (3 Bft) 100,00 %
15.12.2016 14:40 3,7 C 88 % 1028,2 hPa 0,0 l/m 15,2 km/h (3 Bft) O-NO 67 0 min 0,000 mm 0,0 UV-I 54 W/m 1,9 C -2,6 C 20,9 km/h (4 Bft) 100,00 %
15.12.2016 14:42 3,7 C 88 % 1028,2 hPa 0,0 l/m 14,5 km/h (3 Bft) NO 45 0 min 0,000 mm 0,0 UV-I 54 W/m 1,9 C -2,2 C 17,7 km/h (3 Bft) 100,00 %
15.12.2016 14:44 3,7 C 88 % 1028,2 hPa 0,0 l/m 15,5 km/h (3 Bft) O 87 0 min 0,000 mm 0,0 UV-I 47 W/m 1,9 C -2,8 C 22,5 km/h (4 Bft) 100,00 %
15.12.2016 14:46 3,7 C 88 % 1028,2 hPa 0,0 l/m 15,6 km/h (3 Bft) NO 45 0 min 0,000 mm 0,0 UV-I 48 W/m 1,9 C -2,8 C 20,9 km/h (4 Bft) 100,00 %
15.12.2016 14:48 3,7 C 89 % 1028,1 hPa 0,0 l/m 17,4 km/h (3 Bft) NO 56 0 min 0,000 mm 0,0 UV-I 52 W/m 2,1 C -3,7 C 22,5 km/h (4 Bft) 100,00 %
15.12.2016 14:50 3,7 C 89 % 1028,2 hPa 0,0 l/m 13,0 km/h (3 Bft) O-NO 59 0 min 0,000 mm 0,0 UV-I 82 W/m 2,1 C -1,4 C 19,3 km/h (3 Bft) 100,00 %
15.12.2016 14:52 3,7 C 89 % 1028,2 hPa 0,0 l/m 15,0 km/h (3 Bft) O-NO 62 2 min 0,000 mm 0,0 UV-I 94 W/m 2,1 C -2,5 C 22,5 km/h (4 Bft) 97,56 %
15.12.2016 14:54 3,7 C 88 % 1028,2 hPa 0,0 l/m 15,9 km/h (3 Bft) O 96 0 min 0,000 mm 0,0 UV-I 83 W/m 1,9 C -3,0 C 20,9 km/h (4 Bft) 98,11 %
15.12.2016 14:56 3,7 C 88 % 1028,2 hPa 0,0 l/m 15,3 km/h (3 Bft) O-NO 76 2 min 0,000 mm 0,0 UV-I 88 W/m 1,9 C -2,7 C 20,9 km/h (4 Bft) 97,62 %
15.12.2016 14:58 3,7 C 88 % 1028,2 hPa 0,0 l/m 17,4 km/h (3 Bft) O-NO 59 0 min 0,000 mm 0,0 UV-I 78 W/m 1,9 C -3,7 C 24,1 km/h (4 Bft) 96,55 %
15.12.2016 15:00 3,6 C 88 % 1028,2 hPa 0,0 l/m 18,8 km/h (3 Bft) O-NO 76 0 min 0,051 mm 0,0 UV-I 57 W/m 1,8 C -4,5 C 24,1 km/h (4 Bft) 100,00 %
15.12.2016 15:02 3,6 C 88 % 1028,2 hPa 0,0 l/m 19,5 km/h (3 Bft) O-NO 78 0 min 0,000 mm 0,0 UV-I 47 W/m 1,8 C -4,8 C 25,7 km/h (4 Bft) 97,18 %
15.12.2016 15:04 3,5 C 88 % 1028,3 hPa 0,0 l/m 17,2 km/h (3 Bft) O-NO 75 0 min 0,000 mm 0,0 UV-I 42 W/m 1,7 C -3,9 C 24,1 km/h (4 Bft) 98,28 %
15.12.2016 15:06 3,4 C 88 % 1028,2 hPa 0,0 l/m 18,0 km/h (3 Bft) O-NO 58 0 min 0,000 mm 0,0 UV-I 40 W/m 1,6 C -4,4 C 22,5 km/h (4 Bft) 95,83 %
15.12.2016 15:08 3,4 C 88 % 1028,2 hPa 0,0 l/m 18,0 km/h (3 Bft) NO 44 0 min 0,000 mm 0,0 UV-I 64 W/m 1,6 C -4,4 C 25,7 km/h (4 Bft) 97,14 %
15.12.2016 15:10 3,3 C 88 % 1028,2 hPa 0,0 l/m 16,5 km/h (3 Bft) NO 55 2 min 0,000 mm 0,0 UV-I 85 W/m 1,5 C -3,8 C 20,9 km/h (4 Bft) 97,56 %
15.12.2016 15:12 3,3 C 88 % 1028,2 hPa 0,0 l/m 17,0 km/h (3 Bft) O-NO 66 2 min 0,000 mm 0,0 UV-I 85 W/m 1,5 C -4,0 C 22,5 km/h (4 Bft) 96,00 %
15.12.2016 15:14 3,3 C 89 % 1028,1 hPa 0,0 l/m 15,5 km/h (3 Bft) NO 47 2 min 0,000 mm 0,0 UV-I 84 W/m 1,7 C -3,3 C 20,9 km/h (4 Bft) 95,74 %
15.12.2016 15:16 3,3 C 88 % 1028,2 hPa 0,0 l/m 20,7 km/h (4 Bft) O-NO 65 2 min 0,000 mm 0,0 UV-I 79 W/m 1,5 C -5,7 C 30,6 km/h (5 Bft) 95,74 %
15.12.2016 15:18 3,3 C 88 % 1028,1 hPa 0,0 l/m 17,0 km/h (3 Bft) NO 48 2 min 0,000 mm 0,0 UV-I 75 W/m 1,5 C -4,0 C 25,7 km/h (4 Bft) 98,00 %
15.12.2016 15:20 3,3 C 88 % 1028,1 hPa 0,0 l/m 19,0 km/h (3 Bft) O-NO 62 2 min 0,000 mm 0,0 UV-I 73 W/m 1,5 C -4,9 C 25,7 km/h (4 Bft) 95,74 %
15.12.2016 15:22 3,3 C 88 % 1028,1 hPa 0,0 l/m 18,7 km/h (3 Bft) O-NO 72 2 min 0,000 mm 0,0 UV-I 68 W/m 1,5 C -4,8 C 25,7 km/h (4 Bft) 97,56 %
15.12.2016 15:24 3,2 C 88 % 1028,1 hPa 0,0 l/m 17,9 km/h (3 Bft) NO 55 2 min 0,000 mm 0,0 UV-I 60 W/m 1,4 C -4,6 C 24,1 km/h (4 Bft) 97,56 %
15.12.2016 15:26 3,2 C 88 % 1028,1 hPa 0,0 l/m 18,9 km/h (3 Bft) O-NO 57 0 min 0,000 mm 0,0 UV-I 45 W/m 1,4 C -5,0 C 24,1 km/h (4 Bft) 94,92 %
15.12.2016 15:28 3,2 C 88 % 1028,1 hPa 0,0 l/m 17,7 km/h (3 Bft) NO 45 0 min 0,000 mm 0,0 UV-I 27 W/m 1,4 C -4,5 C 22,5 km/h (4 Bft) 100,00 %
15.12.2016 15:30 3,2 C 87 % 1028,1 hPa 0,0 l/m 21,1 km/h (4 Bft) O-NO 58 0 min 0,000 mm 0,0 UV-I 24 W/m 1,2 C -5,9 C 29,0 km/h (5 Bft) 100,00 %
15.12.2016 15:32 3,2 C 88 % 1028,2 hPa 0,0 l/m 19,7 km/h (3 Bft) NO 42 0 min 0,000 mm 0,0 UV-I 23 W/m 1,4 C -5,4 C 25,7 km/h (4 Bft) 97,87 %
15.12.2016 15:34 3,1 C 88 % 1028,2 hPa 0,0 l/m 19,4 km/h (3 Bft) NO 53 0 min 0,000 mm 0,0 UV-I 21 W/m 1,3 C -5,4 C 24,1 km/h (4 Bft) 98,00 %
15.12.2016 15:36 3,1 C 88 % 1028,3 hPa 0,0 l/m 16,0 km/h (3 Bft) O-NO 58 0 min 0,000 mm 0,0 UV-I 21 W/m 1,3 C -3,8 C 24,1 km/h (4 Bft) 95,12 %
15.12.2016 15:38 3,1 C 88 % 1028,3 hPa 0,0 l/m 16,8 km/h (3 Bft) O-NO 68 0 min 0,000 mm 0,0 UV-I 20 W/m 1,3 C -4,2 C 24,1 km/h (4 Bft) 98,21 %
15.12.2016 15:40 3,0 C 88 % 1028,3 hPa 0,0 l/m 15,8 km/h (3 Bft) NO 50 0 min 0,000 mm 0,0 UV-I 19 W/m 1,2 C -3,8 C 20,9 km/h (4 Bft) 100,00 %
15.12.2016 15:42 2,9 C 88 % 1028,2 hPa 0,0 l/m 17,0 km/h (3 Bft) O-NO 67 0 min 0,000 mm 0,0 UV-I 19 W/m 1,1 C -4,5 C 25,7 km/h (4 Bft) 98,00 %
15.12.2016 15:44 2,9 C 88 % 1028,3 hPa 0,0 l/m 18,1 km/h (3 Bft) NO 47 0 min 0,000 mm 0,0 UV-I 18 W/m 1,1 C -5,0 C 25,7 km/h (4 Bft) 100,00 %
15.12.2016 15:46 2,9 C 89 % 1028,3 hPa 0,0 l/m 14,9 km/h (3 Bft) O 90 0 min 0,000 mm 0,0 UV-I 18 W/m 1,3 C -3,4 C 22,5 km/h (4 Bft) 100,00 %
15.12.2016 15:48 2,8 C 89 % 1028,3 hPa 0,0 l/m 19,0 km/h (3 Bft) O-NO 66 0 min 0,000 mm 0,0 UV-I 18 W/m 1,2 C -5,6 C 24,1 km/h (4 Bft) 100,00 %
15.12.2016 15:50 2,8 C 89 % 1028,3 hPa 0,0 l/m 20,7 km/h (4 Bft) NO 55 0 min 0,000 mm 0,0 UV-I 16 W/m 1,2 C -6,3 C 27,4 km/h (4 Bft) 100,00 %
15.12.2016 15:52 2,8 C 89 % 1028,3 hPa 0,0 l/m 17,8 km/h (3 Bft) O-NO 64 2 min 0,000 mm 0,0 UV-I 16 W/m 1,2 C -5,0 C 27,4 km/h (4 Bft) 97,37 %
15.12.2016 15:54 2,8 C 89 % 1028,2 hPa 0,0 l/m 17,0 km/h (3 Bft) O-NO 76 2 min 0,000 mm 0,0 UV-I 14 W/m 1,2 C -4,6 C 24,1 km/h (4 Bft) 100,00 %
15.12.2016 15:56 2,7 C 89 % 1028,3 hPa 0,0 l/m 17,3 km/h (3 Bft) O-NO 58 2 min 0,000 mm 0,0 UV-I 14 W/m 1,1 C -4,9 C 20,9 km/h (4 Bft) 100,00 %
15.12.2016 15:58 2,7 C 89 % 1028,3 hPa 0,0 l/m 17,2 km/h (3 Bft) O-NO 57 0 min 0,000 mm 0,0 UV-I 13 W/m 1,1 C -4,9 C 24,1 km/h (4 Bft) 98,00 %
15.12.2016 16:00 2,7 C 89 % 1028,2 hPa 0,0 l/m 19,1 km/h (3 Bft) O-NO 67 0 min 0,026 mm 0,0 UV-I 12 W/m 1,1 C -5,7 C 30,6 km/h (5 Bft) 100,00 %
15.12.2016 16:02 2,7 C 89 % 1028,3 hPa 0,0 l/m 17,8 km/h (3 Bft) O-NO 69 0 min 0,000 mm 0,0 UV-I 12 W/m 1,1 C -5,1 C 27,4 km/h (4 Bft) 100,00 %
15.12.2016 16:04 2,6 C 89 % 1028,2 hPa 0,0 l/m 15,5 km/h (3 Bft) NO 50 0 min 0,000 mm 0,0 UV-I 11 W/m 1,0 C -4,1 C 22,5 km/h (4 Bft) 92,31 %
15.12.2016 16:06 2,6 C 89 % 1028,2 hPa 0,0 l/m 18,1 km/h (3 Bft) O 83 0 min 0,000 mm 0,0 UV-I 11 W/m 1,0 C -5,4 C 25,7 km/h (4 Bft) 100,00 %
15.12.2016 16:08 2,6 C 89 % 1028,2 hPa 0,0 l/m 15,4 km/h (3 Bft) NO 54 0 min 0,000 mm 0,0 UV-I 9 W/m 1,0 C -4,1 C 22,5 km/h (4 Bft) 95,12 %
15.12.2016 16:10 2,5 C 89 % 1028,2 hPa 0,0 l/m 17,9 km/h (3 Bft) O-NO 72 0 min 0,000 mm 0,0 UV-I 9 W/m 0,9 C -5,4 C 24,1 km/h (4 Bft) 100,00 %
15.12.2016 16:12 2,4 C 89 % 1028,1 hPa 0,0 l/m 21,0 km/h (4 Bft) O-NO 65 0 min 0,000 mm 0,0 UV-I 9 W/m 0,8 C -7,0 C 25,7 km/h (4 Bft) 97,56 %
15.12.2016 16:14 2,4 C 89 % 1028,2 hPa 0,0 l/m 17,9 km/h (3 Bft) O-NO 65 0 min 0,000 mm 0,0 UV-I 7 W/m 0,8 C -5,6 C 27,4 km/h (4 Bft) 100,00 %
15.12.2016 16:16 2,4 C 89 % 1028,2 hPa 0,0 l/m 18,3 km/h (3 Bft) O-NO 63 0 min 0,000 mm 0,0 UV-I 7 W/m 0,8 C -5,8 C 25,7 km/h (4 Bft) 100,00 %
15.12.2016 16:18 2,3 C 89 % 1028,2 hPa 0,0 l/m 18,0 km/h (3 Bft) O-NO 68 0 min 0,000 mm 0,0 UV-I 7 W/m 0,7 C -5,7 C 22,5 km/h (4 Bft) 100,00 %
15.12.2016 16:20 2,3 C 89 % 1028,2 hPa 0,0 l/m 15,6 km/h (3 Bft) NO 43 0 min 0,000 mm 0,0 UV-I 6 W/m 0,7 C -4,5 C 20,9 km/h (4 Bft) 100,00 %
15.12.2016 16:22 2,3 C 89 % 1028,2 hPa 0,0 l/m 15,3 km/h (3 Bft) O-NO 78 0 min 0,000 mm 0,0 UV-I 5 W/m 0,7 C -4,4 C 22,5 km/h (4 Bft) 100,00 %
15.12.2016 16:24 2,2 C 89 % 1028,2 hPa 0,0 l/m 14,3 km/h (3 Bft) NO 48 0 min 0,000 mm 0,0 UV-I 5 W/m 0,6 C -3,9 C 17,7 km/h (3 Bft) 98,00 %
15.12.2016 16:26 2,2 C 89 % 1028,2 hPa 0,0 l/m 15,1 km/h (3 Bft) NO 40 0 min 0,000 mm 0,0 UV-I 5 W/m 0,6 C -4,4 C 20,9 km/h (4 Bft) 100,00 %
15.12.2016 16:28 2,2 C 89 % 1028,2 hPa 0,0 l/m 14,8 km/h (3 Bft) O-NO 59 0 min 0,000 mm 0,0 UV-I 5 W/m 0,6 C -4,2 C 20,9 km/h (4 Bft) 100,00 %
15.12.2016 16:30 2,1 C 89 % 1028,2 hPa 0,0 l/m 16,8 km/h (3 Bft) O-NO 60 0 min 0,000 mm 0,0 UV-I 1 W/m 0,5 C -5,4 C 24,1 km/h (4 Bft) 100,00 %
15.12.2016 16:32 2,1 C 89 % 1028,2 hPa 0,0 l/m 16,6 km/h (3 Bft) O-NO 59 0 min 0,000 mm 0,0 UV-I 0 W/m 0,5 C -5,3 C 22,5 km/h (4 Bft) 98,21 %
15.12.2016 16:34 2,1 C 89 % 1028,2 hPa 0,0 l/m 16,3 km/h (3 Bft) O-NO 59 0 min 0,000 mm 0,0 UV-I 0 W/m 0,5 C -5,1 C 20,9 km/h (4 Bft) 100,00 %
15.12.2016 16:36 2,0 C 89 % 1028,2 hPa 0,0 l/m 14,6 km/h (3 Bft) O-NO 68 0 min 0,000 mm 0,0 UV-I 0 W/m 0,4 C -4,3 C 19,3 km/h (3 Bft) 100,00 %
15.12.2016 16:38 1,9 C 90 % 1028,2 hPa 0,0 l/m 12,6 km/h (3 Bft) NO 45 0 min 0,000 mm 0,0 UV-I 0 W/m 0,4 C -3,2 C 19,3 km/h (3 Bft) 98,53 %
15.12.2016 16:40 1,9 C 89 % 1028,2 hPa 0,0 l/m 11,9 km/h (2 Bft) NO 38 0 min 0,000 mm 0,0 UV-I 0 W/m 0,3 C -2,7 C 16,1 km/h (3 Bft) 100,00 %
15.12.2016 16:42 1,8 C 90 % 1028,2 hPa 0,0 l/m 13,2 km/h (3 Bft) NO 48 0 min 0,000 mm 0,0 UV-I 0 W/m 0,3 C -3,7 C 19,3 km/h (3 Bft) 100,00 %
15.12.2016 16:44 1,8 C 90 % 1028,1 hPa 0,0 l/m 15,7 km/h (3 Bft) NO 47 0 min 0,000 mm 0,0 UV-I 0 W/m 0,3 C -5,2 C 22,5 km/h (4 Bft) 100,00 %
15.12.2016 16:46 1,8 C 90 % 1028,1 hPa 0,0 l/m 13,5 km/h (3 Bft) NO 44 0 min 0,000 mm 0,0 UV-I 0 W/m 0,3 C -3,9 C 19,3 km/h (3 Bft) 98,11 %
15.12.2016 16:48 1,8 C 90 % 1028,2 hPa 0,0 l/m 15,8 km/h (3 Bft) O-NO 66 0 min 0,000 mm 0,0 UV-I 0 W/m 0,3 C -5,2 C 22,5 km/h (4 Bft) 100,00 %
15.12.2016 16:50 1,8 C 90 % 1028,2 hPa 0,0 l/m 14,4 km/h (3 Bft) O-NO 58 0 min 0,000 mm 0,0 UV-I 0 W/m 0,3 C -4,5 C 19,3 km/h (3 Bft) 100,00 %
15.12.2016 16:52 1,8 C 90 % 1028,2 hPa 0,0 l/m 18,6 km/h (3 Bft) O-NO 69 0 min 0,000 mm 0,0 UV-I 0 W/m 0,3 C -6,7 C 25,7 km/h (4 Bft) 100,00 %
15.12.2016 16:54 1,8 C 90 % 1028,2 hPa 0,0 l/m 18,1 km/h (3 Bft) O-NO 73 0 min 0,000 mm 0,0 UV-I 0 W/m 0,3 C -6,4 C 24,1 km/h (4 Bft) 97,37 %
15.12.2016 16:56 1,7 C 90 % 1028,2 hPa 0,0 l/m 16,9 km/h (3 Bft) NO 46 0 min 0,000 mm 0,0 UV-I 0 W/m 0,2 C -6,0 C 22,5 km/h (4 Bft) 100,00 %
15.12.2016 16:58 1,7 C 90 % 1028,2 hPa 0,0 l/m 18,4 km/h (3 Bft) O-NO 60 0 min 0,000 mm 0,0 UV-I 0 W/m 0,2 C -6,7 C 29,0 km/h (5 Bft) 97,87 %
15.12.2016 17:00 1,7 C 90 % 1028,3 hPa 0,0 l/m 19,6 km/h (3 Bft) NO 55 0 min 0,025 mm 0,0 UV-I 0 W/m 0,2 C -7,3 C 25,7 km/h (4 Bft) 97,62 %
15.12.2016 17:02 1,7 C 90 % 1028,3 hPa 0,0 l/m 19,5 km/h (3 Bft) O 84 0 min 0,000 mm 0,0 UV-I 0 W/m 0,2 C -7,2 C 27,4 km/h (4 Bft) 94,23 %
15.12.2016 17:04 1,8 C 90 % 1028,2 hPa 0,0 l/m 18,7 km/h (3 Bft) O-NO 78 0 min 0,000 mm 0,0 UV-I 0 W/m 0,3 C -6,7 C 29,0 km/h (5 Bft) 97,44 %
15.12.2016 17:06 1,8 C 90 % 1028,3 hPa 0,0 l/m 16,7 km/h (3 Bft) O-NO 62 0 min 0,000 mm 0,0 UV-I 0 W/m 0,3 C -5,7 C 22,5 km/h (4 Bft) 95,45 %
15.12.2016 17:08 1,8 C 89 % 1028,3 hPa 0,0 l/m 18,7 km/h (3 Bft) O-NO 67 0 min 0,000 mm 0,0 UV-I 0 W/m 0,2 C -6,7 C 24,1 km/h (4 Bft) 98,21 %
15.12.2016 17:10 1,8 C 89 % 1028,4 hPa 0,0 l/m 18,1 km/h (3 Bft) NO 48 0 min 0,000 mm 0,0 UV-I 0 W/m 0,2 C -6,4 C 22,5 km/h (4 Bft) 95,12 %
15.12.2016 17:12 1,8 C 89 % 1028,3 hPa 0,0 l/m 14,3 km/h (3 Bft) O-NO 58 0 min 0,000 mm 0,0 UV-I 0 W/m 0,2 C -4,4 C 22,5 km/h (4 Bft) 98,00 %
15.12.2016 17:14 1,8 C 89 % 1028,4 hPa 0,0 l/m 13,2 km/h (3 Bft) NO 53 0 min 0,000 mm 0,0 UV-I 0 W/m 0,2 C -3,7 C 17,7 km/h (3 Bft) 96,00 %
15.12.2016 17:16 1,8 C 90 % 1028,4 hPa 0,0 l/m 12,3 km/h (3 Bft) NO 52 0 min 0,000 mm 0,0 UV-I 0 W/m 0,3 C -3,1 C 17,7 km/h (3 Bft) 97,73 %
15.12.2016 17:18 1,8 C 90 % 1028,4 hPa 0,0 l/m 14,8 km/h (3 Bft) NO 54 0 min 0,000 mm 0,0 UV-I 0 W/m 0,3 C -4,7 C 22,5 km/h (4 Bft) 96,23 %
15.12.2016 17:20 1,8 C 90 % 1028,4 hPa 0,0 l/m 14,0 km/h (3 Bft) NO 40 0 min 0,000 mm 0,0 UV-I 0 W/m 0,3 C -4,2 C 20,9 km/h (4 Bft) 97,37 %
15.12.2016 17:22 1,7 C 90 % 1028,4 hPa 0,0 l/m 12,9 km/h (3 Bft) O-NO 64 0 min 0,000 mm 0,0 UV-I 0 W/m 0,2 C -3,6 C 17,7 km/h (3 Bft) 98,11 %
15.12.2016 17:24 1,8 C 90 % 1028,4 hPa 0,0 l/m 14,6 km/h (3 Bft) O-NO 70 0 min 0,000 mm 0,0 UV-I 0 W/m 0,3 C -4,6 C 20,9 km/h (4 Bft) 97,56 %
15.12.2016 17:26 1,7 C 90 % 1028,5 hPa 0,0 l/m 13,1 km/h (3 Bft) NO 44 0 min 0,000 mm 0,0 UV-I 0 W/m 0,2 C -3,8 C 19,3 km/h (3 Bft) 98,11 %
15.12.2016 17:28 1,7 C 90 % 1028,5 hPa 0,0 l/m 14,2 km/h (3 Bft) O-NO 74 0 min 0,000 mm 0,0 UV-I 0 W/m 0,2 C -4,5 C 19,3 km/h (3 Bft) 97,37 %
15.12.2016 17:30 1,7 C 90 % 1028,5 hPa 0,0 l/m 17,2 km/h (3 Bft) NO 55 0 min 0,000 mm 0,0 UV-I 0 W/m 0,2 C -6,1 C 22,5 km/h (4 Bft) 98,11 %
15.12.2016 17:32 1,7 C 90 % 1028,5 hPa 0,0 l/m 13,2 km/h (3 Bft) O-NO 69 0 min 0,000 mm 0,0 UV-I 0 W/m 0,2 C -3,8 C 20,9 km/h (4 Bft) 97,37 %
15.12.2016 17:34 1,7 C 90 % 1028,5 hPa 0,0 l/m 18,8 km/h (3 Bft) O 80 0 min 0,000 mm 0,0 UV-I 0 W/m 0,2 C -6,9 C 22,5 km/h (4 Bft) 98,31 %
15.12.2016 17:36 1,7 C 89 % 1028,5 hPa 0,0 l/m 17,5 km/h (3 Bft) O-NO 59 0 min 0,000 mm 0,0 UV-I 0 W/m 0,1 C -6,3 C 22,5 km/h (4 Bft) 97,56 %
15.12.2016 17:38 1,7 C 89 % 1028,5 hPa 0,0 l/m 16,0 km/h (3 Bft) NO 45 0 min 0,000 mm 0,0 UV-I 0 W/m 0,1 C -5,5 C 22,5 km/h (4 Bft) 98,11 %
15.12.2016 17:40 1,7 C 89 % 1028,6 hPa 0,0 l/m 15,5 km/h (3 Bft) O 80 0 min 0,000 mm 0,0 UV-I 0 W/m 0,1 C -5,2 C 20,9 km/h (4 Bft) 97,62 %
15.12.2016 17:42 1,7 C 89 % 1028,6 hPa 0,0 l/m 14,8 km/h (3 Bft) O-NO 68 0 min 0,000 mm 0,0 UV-I 0 W/m 0,1 C -4,8 C 19,3 km/h (3 Bft) 97,87 %
15.12.2016 17:44 1,7 C 89 % 1028,5 hPa 0,0 l/m 16,1 km/h (3 Bft) O-NO 57 0 min 0,000 mm 0,0 UV-I 0 W/m 0,1 C -5,5 C 19,3 km/h (3 Bft) 100,00 %
15.12.2016 17:46 1,7 C 89 % 1028,5 hPa 0,0 l/m 15,7 km/h (3 Bft) NO 42 0 min 0,000 mm 0,0 UV-I 0 W/m 0,1 C -5,3 C 20,9 km/h (4 Bft) 97,87 %
15.12.2016 17:48 1,7 C 89 % 1028,5 hPa 0,0 l/m 17,8 km/h (3 Bft) NO 48 0 min 0,000 mm 0,0 UV-I 0 W/m 0,1 C -6,4 C 27,4 km/h (4 Bft) 97,37 %
15.12.2016 17:50 1,7 C 89 % 1028,5 hPa 0,0 l/m 16,7 km/h (3 Bft) NO 54 0 min 0,000 mm 0,0 UV-I 0 W/m 0,1 C -5,9 C 22,5 km/h (4 Bft) 98,00 %
15.12.2016 17:52 1,7 C 89 % 1028,5 hPa 0,0 l/m 17,5 km/h (3 Bft) NO 51 0 min 0,000 mm 0,0 UV-I 0 W/m 0,1 C -6,3 C 24,1 km/h (4 Bft) 97,56 %
15.12.2016 17:54 1,6 C 89 % 1028,6 hPa 0,0 l/m 17,5 km/h (3 Bft) O 80 0 min 0,000 mm 0,0 UV-I 0 W/m -0,0 C -6,4 C 22,5 km/h (4 Bft) 100,00 %
15.12.2016 17:56 1,6 C 89 % 1028,5 hPa 0,0 l/m 16,3 km/h (3 Bft) NO 55 0 min 0,000 mm 0,0 UV-I 0 W/m -0,0 C -5,8 C 20,9 km/h (4 Bft) 100,00 %
15.12.2016 17:58 1,6 C 89 % 1028,6 hPa 0,0 l/m 14,4 km/h (3 Bft) NO 52 0 min 0,000 mm 0,0 UV-I 0 W/m -0,0 C -4,7 C 19,3 km/h (3 Bft) 100,00 %
15.12.2016 18:00 1,6 C 89 % 1028,6 hPa 0,0 l/m 17,7 km/h (3 Bft) NO 51 0 min 0,025 mm 0,0 UV-I 0 W/m -0,0 C -6,5 C 24,1 km/h (4 Bft) 100,00 %
15.12.2016 18:02 1,6 C 89 % 1028,6 hPa 0,0 l/m 15,3 km/h (3 Bft) O-NO 59 0 min 0,000 mm 0,0 UV-I 0 W/m -0,0 C -5,2 C 19,3 km/h (3 Bft) 100,00 %
15.12.2016 18:04 1,6 C 89 % 1028,6 hPa 0,0 l/m 16,1 km/h (3 Bft) NO 51 0 min 0,000 mm 0,0 UV-I 0 W/m -0,0 C -5,7 C 22,5 km/h (4 Bft) 100,00 %
15.12.2016 18:06 1,6 C 89 % 1028,6 hPa 0,0 l/m 15,6 km/h (3 Bft) O-NO 57 0 min 0,000 mm 0,0 UV-I 0 W/m -0,0 C -5,4 C 22,5 km/h (4 Bft) 100,00 %
15.12.2016 18:08 1,6 C 89 % 1028,6 hPa 0,0 l/m 16,5 km/h (3 Bft) O-NO 70 0 min 0,000 mm 0,0 UV-I 0 W/m -0,0 C -5,9 C 24,1 km/h (4 Bft) 100,00 %
15.12.2016 18:10 1,6 C 89 % 1028,6 hPa 0,0 l/m 17,4 km/h (3 Bft) O-NO 68 0 min 0,000 mm 0,0 UV-I 0 W/m -0,0 C -6,3 C 25,7 km/h (4 Bft) 100,00 %
15.12.2016 18:12 1,6 C 89 % 1028,7 hPa 0,0 l/m 13,5 km/h (3 Bft) NO 55 0 min 0,000 mm 0,0 UV-I 0 W/m -0,0 C -4,1 C 22,5 km/h (4 Bft) 100,00 %
15.12.2016 18:14 1,6 C 89 % 1028,7 hPa 0,0 l/m 19,3 km/h (3 Bft) O-NO 73 0 min 0,000 mm 0,0 UV-I 0 W/m -0,0 C -7,2 C 25,7 km/h (4 Bft) 97,87 %
15.12.2016 18:16 1,6 C 89 % 1028,7 hPa 0,0 l/m 17,8 km/h (3 Bft) O-NO 77 0 min 0,000 mm 0,0 UV-I 0 W/m -0,0 C -6,5 C 25,7 km/h (4 Bft) 100,00 %
15.12.2016 18:18 1,6 C 89 % 1028,7 hPa 0,0 l/m 17,4 km/h (3 Bft) NO 48 0 min 0,000 mm 0,0 UV-I 0 W/m -0,0 C -6,3 C 24,1 km/h (4 Bft) 100,00 %
15.12.2016 18:20 1,6 C 89 % 1028,7 hPa 0,0 l/m 13,6 km/h (3 Bft) O-NO 59 0 min 0,000 mm 0,0 UV-I 0 W/m -0,0 C -4,2 C 20,9 km/h (4 Bft) 100,00 %
15.12.2016 18:22 1,6 C 89 % 1028,7 hPa 0,0 l/m 15,7 km/h (3 Bft) O-NO 67 0 min 0,000 mm 0,0 UV-I 0 W/m -0,0 C -5,4 C 20,9 km/h (4 Bft) 97,44 %
15.12.2016 18:24 1,6 C 88 % 1028,7 hPa 0,0 l/m 16,4 km/h (3 Bft) O-NO 61 0 min 0,000 mm 0,0 UV-I 0 W/m -0,2 C -5,8 C 20,9 km/h (4 Bft) 100,00 %
15.12.2016 18:26 1,6 C 88 % 1028,7 hPa 0,0 l/m 20,3 km/h (4 Bft) NO 53 0 min 0,000 mm 0,0 UV-I 0 W/m -0,2 C -7,7 C 33,8 km/h (5 Bft) 100,00 %
15.12.2016 18:28 1,6 C 88 % 1028,8 hPa 0,0 l/m 19,1 km/h (3 Bft) NO 42 0 min 0,000 mm 0,0 UV-I 0 W/m -0,2 C -7,2 C 27,4 km/h (4 Bft) 100,00 %
15.12.2016 18:30 1,5 C 88 % 1028,7 hPa 0,0 l/m 20,2 km/h (4 Bft) NO 47 0 min 0,000 mm 0,0 UV-I 0 W/m -0,3 C -7,8 C 27,4 km/h (4 Bft) 100,00 %
15.12.2016 18:32 1,5 C 88 % 1028,7 hPa 0,0 l/m 20,3 km/h (4 Bft) NO 51 0 min 0,000 mm 0,0 UV-I 0 W/m -0,3 C -7,8 C 25,7 km/h (4 Bft) 100,00 %
15.12.2016 18:34 1,5 C 88 % 1028,8 hPa 0,0 l/m 15,7 km/h (3 Bft) N-NO 24 0 min 0,000 mm 0,0 UV-I 0 W/m -0,3 C -5,6 C 22,5 km/h (4 Bft) 97,37 %
15.12.2016 18:36 1,5 C 88 % 1028,7 hPa 0,0 l/m 20,2 km/h (4 Bft) O-NO 64 0 min 0,000 mm 0,0 UV-I 0 W/m -0,3 C -7,8 C 27,4 km/h (4 Bft) 100,00 %
15.12.2016 18:38 1,5 C 87 % 1028,8 hPa 0,0 l/m 19,5 km/h (3 Bft) NO 40 0 min 0,000 mm 0,0 UV-I 0 W/m -0,4 C -7,5 C 29,0 km/h (5 Bft) 100,00 %
15.12.2016 18:40 1,5 C 87 % 1028,8 hPa 0,0 l/m 20,7 km/h (4 Bft) NO 56 0 min 0,000 mm 0,0 UV-I 0 W/m -0,4 C -8,0 C 25,7 km/h (4 Bft) 100,00 %
15.12.2016 18:42 1,5 C 88 % 1028,8 hPa 0,0 l/m 18,2 km/h (3 Bft) O-NO 67 0 min 0,000 mm 0,0 UV-I 0 W/m -0,3 C -6,9 C 25,7 km/h (4 Bft) 100,00 %
15.12.2016 18:44 1,5 C 88 % 1028,8 hPa 0,0 l/m 18,6 km/h (3 Bft) O-NO 58 0 min 0,000 mm 0,0 UV-I 0 W/m -0,3 C -7,0 C 24,1 km/h (4 Bft) 100,00 %
15.12.2016 18:46 1,4 C 87 % 1028,8 hPa 0,0 l/m 18,4 km/h (3 Bft) NO 42 0 min 0,000 mm 0,0 UV-I 0 W/m -0,5 C -7,1 C 24,1 km/h (4 Bft) 98,11 %
15.12.2016 18:48 1,4 C 87 % 1028,8 hPa 0,0 l/m 22,5 km/h (4 Bft) O-NO 59 0 min 0,000 mm 0,0 UV-I 0 W/m -0,5 C -8,9 C 30,6 km/h (5 Bft) 100,00 %
15.12.2016 18:50 1,4 C 87 % 1028,8 hPa 0,0 l/m 18,5 km/h (3 Bft) O-NO 63 0 min 0,000 mm 0,0 UV-I 0 W/m -0,5 C -7,1 C 25,7 km/h (4 Bft) 100,00 %
15.12.2016 18:52 1,4 C 87 % 1028,8 hPa 0,0 l/m 18,5 km/h (3 Bft) O-NO 60 0 min 0,000 mm 0,0 UV-I 0 W/m -0,5 C -7,1 C 30,6 km/h (5 Bft) 100,00 %
15.12.2016 18:54 1,4 C 87 % 1028,8 hPa 0,0 l/m 17,9 km/h (3 Bft) NO 49 0 min 0,000 mm 0,0 UV-I 0 W/m -0,5 C -6,8 C 25,7 km/h (4 Bft) 98,11 %
15.12.2016 18:56 1,4 C 87 % 1028,9 hPa 0,0 l/m 19,0 km/h (3 Bft) O-NO 63 0 min 0,000 mm 0,0 UV-I 0 W/m -0,5 C -7,4 C 30,6 km/h (5 Bft) 97,87 %
15.12.2016 18:58 1,4 C 87 % 1028,9 hPa 0,0 l/m 18,6 km/h (3 Bft) N-NO 30 0 min 0,000 mm 0,0 UV-I 0 W/m -0,5 C -7,2 C 27,4 km/h (4 Bft) 100,00 %
15.12.2016 19:00 1,4 C 88 % 1028,9 hPa 0,0 l/m 17,6 km/h (3 Bft) N-NO 17 0 min 0,026 mm 0,0 UV-I 0 W/m -0,4 C -6,7 C 22,5 km/h (4 Bft) 98,11 %
15.12.2016 19:02 1,4 C 88 % 1029,0 hPa 0,0 l/m 16,6 km/h (3 Bft) O-NO 59 0 min 0,000 mm 0,0 UV-I 0 W/m -0,4 C -6,2 C 24,1 km/h (4 Bft) 100,00 %
15.12.2016 19:04 1,4 C 88 % 1028,9 hPa 0,0 l/m 20,1 km/h (4 Bft) NO 49 0 min 0,000 mm 0,0 UV-I 0 W/m -0,4 C -7,9 C 30,6 km/h (5 Bft) 98,21 %
15.12.2016 19:06 1,3 C 87 % 1028,9 hPa 0,0 l/m 19,4 km/h (3 Bft) N-NO 31 0 min 0,000 mm 0,0 UV-I 0 W/m -0,6 C -7,7 C 24,1 km/h (4 Bft) 96,55 %
15.12.2016 19:08 1,3 C 87 % 1028,9 hPa 0,0 l/m 20,1 km/h (4 Bft) NO 45 0 min 0,000 mm 0,0 UV-I 0 W/m -0,6 C -8,0 C 29,0 km/h (5 Bft) 95,59 %
15.12.2016 19:10 1,3 C 87 % 1028,9 hPa 0,0 l/m 19,7 km/h (3 Bft) NO 38 0 min 0,000 mm 0,0 UV-I 0 W/m -0,6 C -7,8 C 27,4 km/h (4 Bft) 97,37 %
15.12.2016 19:12 1,3 C 87 % 1029,0 hPa 0,0 l/m 20,6 km/h (4 Bft) NO 34 0 min 0,000 mm 0,0 UV-I 0 W/m -0,6 C -8,2 C 29,0 km/h (5 Bft) 98,00 %
15.12.2016 19:14 1,3 C 87 % 1029,0 hPa 0,0 l/m 18,7 km/h (3 Bft) N-NO 28 0 min 0,000 mm 0,0 UV-I 0 W/m -0,6 C -7,4 C 25,7 km/h (4 Bft) 98,11 %
15.12.2016 19:16 1,3 C 87 % 1029,1 hPa 0,0 l/m 19,6 km/h (3 Bft) NO 45 0 min 0,000 mm 0,0 UV-I 0 W/m -0,6 C -7,8 C 25,7 km/h (4 Bft) 95,45 %
15.12.2016 19:18 1,3 C 87 % 1029,1 hPa 0,0 l/m 21,3 km/h (4 Bft) N-NO 26 0 min 0,000 mm 0,0 UV-I 0 W/m -0,6 C -8,5 C 33,8 km/h (5 Bft) 97,73 %
15.12.2016 19:20 1,2 C 87 % 1029,1 hPa 0,0 l/m 24,4 km/h (4 Bft) N-NO 33 0 min 0,000 mm 0,0 UV-I 0 W/m -0,7 C -9,9 C 33,8 km/h (5 Bft) 97,56 %
15.12.2016 19:22 1,2 C 87 % 1029,2 hPa 0,0 l/m 26,8 km/h (4 Bft) O 80 0 min 0,000 mm 0,0 UV-I 0 W/m -0,7 C -10,7 C 33,8 km/h (5 Bft) 92,45 %
15.12.2016 19:24 1,2 C 87 % 1029,2 hPa 0,0 l/m 23,2 km/h (4 Bft) NO 43 0 min 0,000 mm 0,0 UV-I 0 W/m -0,7 C -9,4 C 32,2 km/h (5 Bft) 95,12 %
15.12.2016 19:26 1,2 C 87 % 1029,2 hPa 0,0 l/m 21,9 km/h (4 Bft) NO 34 0 min 0,000 mm 0,0 UV-I 0 W/m -0,7 C -8,9 C 33,8 km/h (5 Bft) 97,87 %
15.12.2016 19:28 1,2 C 87 % 1029,2 hPa 0,0 l/m 22,2 km/h (4 Bft) O 84 0 min 0,000 mm 0,0 UV-I 0 W/m -0,7 C -9,0 C 30,6 km/h (5 Bft) 97,87 %
15.12.2016 19:30 1,2 C 87 % 1029,2 hPa 0,0 l/m 23,4 km/h (4 Bft) NO 35 0 min 0,000 mm 0,0 UV-I 0 W/m -0,7 C -9,5 C 37,0 km/h (5 Bft) 97,87 %
15.12.2016 19:32 1,2 C 87 % 1029,2 hPa 0,0 l/m 24,7 km/h (4 Bft) O-NO 72 0 min 0,000 mm 0,0 UV-I 0 W/m -0,7 C -10,0 C 41,8 km/h (6 Bft) 96,43 %
15.12.2016 19:34 1,2 C 87 % 1029,3 hPa 0,0 l/m 19,6 km/h (3 Bft) NO 44 0 min 0,000 mm 0,0 UV-I 0 W/m -0,7 C -7,9 C 32,2 km/h (5 Bft) 97,37 %
15.12.2016 19:36 1,1 C 86 % 1029,2 hPa 0,0 l/m 25,4 km/h (4 Bft) NO 51 0 min 0,000 mm 0,0 UV-I 0 W/m -1,0 C -10,4 C 33,8 km/h (5 Bft) 96,43 %
15.12.2016 19:38 1,1 C 86 % 1029,3 hPa 0,0 l/m 24,5 km/h (4 Bft) O-NO 62 0 min 0,000 mm 0,0 UV-I 0 W/m -1,0 C -10,0 C 32,2 km/h (5 Bft) 100,00 %
15.12.2016 19:40 1,1 C 86 % 1029,3 hPa 0,0 l/m 21,1 km/h (4 Bft) NO 54 0 min 0,000 mm 0,0 UV-I 0 W/m -1,0 C -8,7 C 35,4 km/h (5 Bft) 100,00 %
15.12.2016 19:42 1,1 C 86 % 1029,2 hPa 0,0 l/m 24,7 km/h (4 Bft) O-NO 63 0 min 0,000 mm 0,0 UV-I 0 W/m -1,0 C -10,1 C 38,6 km/h (5 Bft) 97,44 %
15.12.2016 19:44 1,1 C 86 % 1029,2 hPa 0,0 l/m 21,7 km/h (4 Bft) NO 42 0 min 0,000 mm 0,0 UV-I 0 W/m -1,0 C -8,9 C 32,2 km/h (5 Bft) 100,00 %
15.12.2016 19:46 1,0 C 86 % 1029,2 hPa 0,0 l/m 19,3 km/h (3 Bft) NO 49 0 min 0,000 mm 0,0 UV-I 0 W/m -1,1 C -8,0 C 27,4 km/h (4 Bft) 100,00 %
15.12.2016 19:48 1,0 C 86 % 1029,2 hPa 0,0 l/m 25,3 km/h (4 Bft) NO 44 0 min 0,000 mm 0,0 UV-I 0 W/m -1,1 C -10,5 C 35,4 km/h (5 Bft) 100,00 %
15.12.2016 19:50 1,0 C 86 % 1029,2 hPa 0,0 l/m 23,1 km/h (4 Bft) O-NO 67 0 min 0,000 mm 0,0 UV-I 0 W/m -1,1 C -9,6 C 32,2 km/h (5 Bft) 100,00 %
15.12.2016 19:52 0,9 C 86 % 1029,2 hPa 0,0 l/m 23,4 km/h (4 Bft) O-NO 59 0 min 0,000 mm 0,0 UV-I 0 W/m -1,2 C -9,9 C 30,6 km/h (5 Bft) 100,00 %
15.12.2016 19:54 0,9 C 86 % 1029,2 hPa 0,0 l/m 24,1 km/h (4 Bft) NO 41 0 min 0,000 mm 0,0 UV-I 0 W/m -1,2 C -10,2 C 38,6 km/h (5 Bft) 100,00 %
15.12.2016 19:56 0,9 C 86 % 1029,2 hPa 0,0 l/m 25,4 km/h (4 Bft) NO 44 0 min 0,000 mm 0,0 UV-I 0 W/m -1,2 C -10,6 C 35,4 km/h (5 Bft) 100,00 %
15.12.2016 19:58 0,9 C 86 % 1029,3 hPa 0,0 l/m 25,6 km/h (4 Bft) NO 34 0 min 0,000 mm 0,0 UV-I 0 W/m -1,2 C -10,7 C 35,4 km/h (5 Bft) 100,00 %
15.12.2016 20:00 0,9 C 86 % 1029,3 hPa 0,0 l/m 21,7 km/h (4 Bft) NO 38 0 min 0,025 mm 0,0 UV-I 0 W/m -1,2 C -9,2 C 30,6 km/h (5 Bft) 100,00 %
15.12.2016 20:02 0,9 C 86 % 1029,2 hPa 0,0 l/m 27,4 km/h (4 Bft) NO 42 0 min 0,000 mm 0,0 UV-I 0 W/m -1,2 C -11,3 C 33,8 km/h (5 Bft) 96,00 %
15.12.2016 20:04 0,9 C 86 % 1029,3 hPa 0,0 l/m 23,0 km/h (4 Bft) NO 55 0 min 0,000 mm 0,0 UV-I 0 W/m -1,2 C -9,7 C 30,6 km/h (5 Bft) 100,00 %
15.12.2016 20:06 0,9 C 86 % 1029,3 hPa 0,0 l/m 19,8 km/h (3 Bft) N-NO 19 0 min 0,000 mm 0,0 UV-I 0 W/m -1,2 C -8,4 C 33,8 km/h (5 Bft) 100,00 %
15.12.2016 20:08 0,9 C 86 % 1029,3 hPa 0,0 l/m 24,2 km/h (4 Bft) NO 36 0 min 0,000 mm 0,0 UV-I 0 W/m -1,2 C -10,2 C 35,4 km/h (5 Bft) 100,00 %
15.12.2016 20:10 0,9 C 86 % 1029,3 hPa 0,0 l/m 23,7 km/h (4 Bft) NO 50 0 min 0,000 mm 0,0 UV-I 0 W/m -1,2 C -10,0 C 37,0 km/h (5 Bft) 100,00 %
15.12.2016 20:12 0,9 C 85 % 1029,3 hPa 0,0 l/m 22,6 km/h (4 Bft) NO 52 0 min 0,000 mm 0,0 UV-I 0 W/m -1,3 C -9,6 C 35,4 km/h (5 Bft) 97,56 %
15.12.2016 20:14 0,9 C 85 % 1029,2 hPa 0,0 l/m 25,2 km/h (4 Bft) NO 56 0 min 0,000 mm 0,0 UV-I 0 W/m -1,3 C -10,6 C 40,2 km/h (6 Bft) 96,00 %
15.12.2016 20:16 0,9 C 86 % 1029,3 hPa 0,0 l/m 19,6 km/h (3 Bft) N-NO 32 0 min 0,000 mm 0,0 UV-I 0 W/m -1,2 C -8,3 C 30,6 km/h (5 Bft) 100,00 %
15.12.2016 20:18 0,9 C 86 % 1029,4 hPa 0,0 l/m 23,4 km/h (4 Bft) NO 34 0 min 0,000 mm 0,0 UV-I 0 W/m -1,2 C -9,9 C 32,2 km/h (5 Bft) 100,00 %
15.12.2016 20:20 0,9 C 86 % 1029,4 hPa 0,0 l/m 21,2 km/h (4 Bft) O-NO 74 0 min 0,000 mm 0,0 UV-I 0 W/m -1,2 C -9,0 C 29,0 km/h (5 Bft) 100,00 %
15.12.2016 20:22 0,9 C 85 % 1029,4 hPa 0,0 l/m 22,1 km/h (4 Bft) NO 50 0 min 0,000 mm 0,0 UV-I 0 W/m -1,3 C -9,4 C 38,6 km/h (5 Bft) 97,56 %
15.12.2016 20:24 0,8 C 85 % 1029,4 hPa 0,0 l/m 20,5 km/h (4 Bft) NO 49 0 min 0,000 mm 0,0 UV-I 0 W/m -1,4 C -8,8 C 25,7 km/h (4 Bft) 100,00 %
15.12.2016 20:26 0,8 C 85 % 1029,4 hPa 0,0 l/m 21,1 km/h (4 Bft) NO 49 0 min 0,000 mm 0,0 UV-I 0 W/m -1,4 C -9,1 C 30,6 km/h (5 Bft) 100,00 %
15.12.2016 20:28 0,8 C 85 % 1029,4 hPa 0,0 l/m 24,8 km/h (4 Bft) NO 53 0 min 0,000 mm 0,0 UV-I 0 W/m -1,4 C -10,6 C 40,2 km/h (6 Bft) 100,00 %
15.12.2016 20:30 0,8 C 85 % 1029,4 hPa 0,0 l/m 22,1 km/h (4 Bft) O-NO 59 0 min 0,000 mm 0,0 UV-I 0 W/m -1,4 C -9,5 C 30,6 km/h (5 Bft) 97,37 %
15.12.2016 20:32 0,8 C 85 % 1029,4 hPa 0,0 l/m 20,9 km/h (4 Bft) NO 34 0 min 0,000 mm 0,0 UV-I 0 W/m -1,4 C -9,0 C 27,4 km/h (4 Bft) 100,00 %
15.12.2016 20:34 0,8 C 85 % 1029,4 hPa 0,0 l/m 23,5 km/h (4 Bft) NO 47 0 min 0,000 mm 0,0 UV-I 0 W/m -1,4 C -10,1 C 35,4 km/h (5 Bft) 100,00 %
15.12.2016 20:36 0,8 C 85 % 1029,4 hPa 0,0 l/m 24,5 km/h (4 Bft) O-NO 57 0 min 0,000 mm 0,0 UV-I 0 W/m -1,4 C -10,5 C 38,6 km/h (5 Bft) 100,00 %
15.12.2016 20:38 0,8 C 85 % 1029,5 hPa 0,0 l/m 21,9 km/h (4 Bft) N-NO 30 0 min 0,000 mm 0,0 UV-I 0 W/m -1,4 C -9,4 C 33,8 km/h (5 Bft) 100,00 %
15.12.2016 20:40 0,8 C 85 % 1029,4 hPa 0,0 l/m 21,1 km/h (4 Bft) NO 37 0 min 0,000 mm 0,0 UV-I 0 W/m -1,4 C -9,1 C 32,2 km/h (5 Bft) 100,00 %
15.12.2016 20:42 0,8 C 85 % 1029,4 hPa 0,0 l/m 21,9 km/h (4 Bft) O-NO 73 0 min 0,000 mm 0,0 UV-I 0 W/m -1,4 C -9,4 C 30,6 km/h (5 Bft) 100,00 %
15.12.2016 20:44 0,8 C 85 % 1029,4 hPa 0,0 l/m 22,0 km/h (4 Bft) NO 44 0 min 0,000 mm 0,0 UV-I 0 W/m -1,4 C -9,5 C 30,6 km/h (5 Bft) 100,00 %
15.12.2016 20:46 0,8 C 85 % 1029,5 hPa 0,0 l/m 21,7 km/h (4 Bft) NO 51 0 min 0,000 mm 0,0 UV-I 0 W/m -1,4 C -9,3 C 33,8 km/h (5 Bft) 100,00 %
15.12.2016 20:48 0,8 C 85 % 1029,5 hPa 0,0 l/m 20,0 km/h (4 Bft) O-NO 64 0 min 0,000 mm 0,0 UV-I 0 W/m -1,4 C -8,6 C 30,6 km/h (5 Bft) 100,00 %
15.12.2016 20:50 0,7 C 85 % 1029,4 hPa 0,0 l/m 22,5 km/h (4 Bft) O-NO 57 0 min 0,000 mm 0,0 UV-I 0 W/m -1,5 C -9,8 C 30,6 km/h (5 Bft) 96,00 %
15.12.2016 20:52 0,7 C 85 % 1029,5 hPa 0,0 l/m 22,8 km/h (4 Bft) NO 41 0 min 0,000 mm 0,0 UV-I 0 W/m -1,5 C -9,9 C 30,6 km/h (5 Bft) 100,00 %
15.12.2016 20:54 0,7 C 85 % 1029,5 hPa 0,0 l/m 22,2 km/h (4 Bft) NO 55 0 min 0,000 mm 0,0 UV-I 0 W/m -1,5 C -9,7 C 30,6 km/h (5 Bft) 100,00 %
15.12.2016 20:56 0,7 C 85 % 1029,4 hPa 0,0 l/m 22,8 km/h (4 Bft) N-NO 32 0 min 0,000 mm 0,0 UV-I 0 W/m -1,5 C -9,9 C 32,2 km/h (5 Bft) 97,87 %
15.12.2016 20:58 0,7 C 85 % 1029,5 hPa 0,0 l/m 17,4 km/h (3 Bft) NO 44 0 min 0,000 mm 0,0 UV-I 0 W/m -1,5 C -7,5 C 27,4 km/h (4 Bft) 100,00 %
15.12.2016 21:00 0,7 C 85 % 1029,5 hPa 0,0 l/m 19,0 km/h (3 Bft) NO 52 0 min 0,026 mm 0,0 UV-I 0 W/m -1,5 C -8,3 C 27,4 km/h (4 Bft) 100,00 %
15.12.2016 21:02 0,7 C 85 % 1029,5 hPa 0,0 l/m 20,4 km/h (4 Bft) NO 42 0 min 0,000 mm 0,0 UV-I 0 W/m -1,5 C -8,9 C 27,4 km/h (4 Bft) 100,00 %
15.12.2016 21:04 0,7 C 85 % 1029,5 hPa 0,0 l/m 20,9 km/h (4 Bft) O-NO 71 0 min 0,000 mm 0,0 UV-I 0 W/m -1,5 C -9,1 C 29,0 km/h (5 Bft) 97,73 %
15.12.2016 21:06 0,7 C 85 % 1029,5 hPa 0,0 l/m 20,2 km/h (4 Bft) NO 44 0 min 0,000 mm 0,0 UV-I 0 W/m -1,5 C -8,8 C 30,6 km/h (5 Bft) 100,00 %
15.12.2016 21:08 0,7 C 85 % 1029,6 hPa 0,0 l/m 16,4 km/h (3 Bft) NO 49 0 min 0,000 mm 0,0 UV-I 0 W/m -1,5 C -6,9 C 22,5 km/h (4 Bft) 97,87 %
15.12.2016 21:10 0,6 C 85 % 1029,5 hPa 0,0 l/m 17,8 km/h (3 Bft) N-NO 17 0 min 0,000 mm 0,0 UV-I 0 W/m -1,6 C -7,8 C 27,4 km/h (4 Bft) 97,87 %
15.12.2016 21:12 0,6 C 85 % 1029,5 hPa 0,0 l/m 19,1 km/h (3 Bft) N-NO 29 0 min 0,000 mm 0,0 UV-I 0 W/m -1,6 C -8,4 C 27,4 km/h (4 Bft) 97,87 %
15.12.2016 21:14 0,6 C 85 % 1029,6 hPa 0,0 l/m 23,3 km/h (4 Bft) O-NO 71 0 min 0,000 mm 0,0 UV-I 0 W/m -1,6 C -10,3 C 30,6 km/h (5 Bft) 97,56 %
15.12.2016 21:16 0,6 C 85 % 1029,5 hPa 0,0 l/m 23,6 km/h (4 Bft) NO 54 0 min 0,000 mm 0,0 UV-I 0 W/m -1,6 C -10,4 C 32,2 km/h (5 Bft) 96,23 %
15.12.2016 21:18 0,6 C 85 % 1029,5 hPa 0,0 l/m 20,4 km/h (4 Bft) O-NO 67 0 min 0,000 mm 0,0 UV-I 0 W/m -1,6 C -9,0 C 32,2 km/h (5 Bft) 95,12 %
15.12.2016 21:20 0,6 C 85 % 1029,5 hPa 0,0 l/m 19,2 km/h (3 Bft) O-NO 67 0 min 0,000 mm 0,0 UV-I 0 W/m -1,6 C -8,5 C 30,6 km/h (5 Bft) 97,73 %
15.12.2016 21:22 0,6 C 85 % 1029,5 hPa 0,0 l/m 20,5 km/h (4 Bft) O-NO 61 0 min 0,000 mm 0,0 UV-I 0 W/m -1,6 C -9,1 C 33,8 km/h (5 Bft) 96,00 %
15.12.2016 21:24 0,6 C 85 % 1029,5 hPa 0,0 l/m 21,4 km/h (4 Bft) O-NO 61 0 min 0,000 mm 0,0 UV-I 0 W/m -1,6 C -9,5 C 29,0 km/h (5 Bft) 98,00 %
15.12.2016 21:26 0,6 C 85 % 1029,6 hPa 0,0 l/m 20,4 km/h (4 Bft) N-NO 17 0 min 0,000 mm 0,0 UV-I 0 W/m -1,6 C -9,0 C 29,0 km/h (5 Bft) 96,00 %
15.12.2016 21:28 0,6 C 85 % 1029,5 hPa 0,0 l/m 19,9 km/h (4 Bft) NO 46 0 min 0,000 mm 0,0 UV-I 0 W/m -1,6 C -8,8 C 30,6 km/h (5 Bft) 97,37 %
15.12.2016 21:30 0,6 C 85 % 1029,6 hPa 0,0 l/m 16,9 km/h (3 Bft) NO 44 0 min 0,000 mm 0,0 UV-I 0 W/m -1,6 C -7,3 C 22,5 km/h (4 Bft) 94,00 %
15.12.2016 21:32 0,5 C 85 % 1029,6 hPa 0,0 l/m 15,9 km/h (3 Bft) O-NO 74 0 min 0,000 mm 0,0 UV-I 0 W/m -1,7 C -6,9 C 20,9 km/h (4 Bft) 97,56 %
15.12.2016 21:34 0,5 C 85 % 1029,6 hPa 0,0 l/m 15,3 km/h (3 Bft) O-NO 59 0 min 0,000 mm 0,0 UV-I 0 W/m -1,7 C -6,6 C 24,1 km/h (4 Bft) 97,62 %
15.12.2016 21:36 0,5 C 85 % 1029,7 hPa 0,0 l/m 19,1 km/h (3 Bft) O-NO 59 0 min 0,000 mm 0,0 UV-I 0 W/m -1,7 C -8,6 C 32,2 km/h (5 Bft) 96,23 %
15.12.2016 21:38 0,5 C 85 % 1029,7 hPa 0,0 l/m 18,5 km/h (3 Bft) N-NO 30 0 min 0,000 mm 0,0 UV-I 0 W/m -1,7 C -8,3 C 25,7 km/h (4 Bft) 96,00 %
15.12.2016 21:40 0,5 C 85 % 1029,7 hPa 0,0 l/m 18,4 km/h (3 Bft) O 88 0 min 0,000 mm 0,0 UV-I 0 W/m -1,7 C -8,2 C 27,4 km/h (4 Bft) 97,87 %
15.12.2016 21:42 0,5 C 85 % 1029,6 hPa 0,0 l/m 16,2 km/h (3 Bft) NO 46 0 min 0,000 mm 0,0 UV-I 0 W/m -1,7 C -7,1 C 22,5 km/h (4 Bft) 100,00 %
15.12.2016 21:44 0,5 C 85 % 1029,6 hPa 0,0 l/m 18,1 km/h (3 Bft) NO 50 0 min 0,000 mm 0,0 UV-I 0 W/m -1,7 C -8,1 C 24,1 km/h (4 Bft) 95,56 %
15.12.2016 21:46 0,5 C 85 % 1029,6 hPa 0,0 l/m 17,6 km/h (3 Bft) N 5 0 min 0,000 mm 0,0 UV-I 0 W/m -1,7 C -7,8 C 25,7 km/h (4 Bft) 100,00 %
15.12.2016 21:48 0,5 C 85 % 1029,6 hPa 0,0 l/m 19,1 km/h (3 Bft) O-NO 72 0 min 0,000 mm 0,0 UV-I 0 W/m -1,7 C -8,6 C 27,4 km/h (4 Bft) 98,21 %
15.12.2016 21:50 0,5 C 85 % 1029,6 hPa 0,0 l/m 17,5 km/h (3 Bft) O-NO 61 0 min 0,000 mm 0,0 UV-I 0 W/m -1,7 C -7,8 C 24,1 km/h (4 Bft) 100,00 %
15.12.2016 21:52 0,4 C 85 % 1029,6 hPa 0,0 l/m 17,8 km/h (3 Bft) O-NO 60 0 min 0,000 mm 0,0 UV-I 0 W/m -1,8 C -8,0 C 22,5 km/h (4 Bft) 100,00 %
15.12.2016 21:54 0,4 C 85 % 1029,5 hPa 0,0 l/m 15,9 km/h (3 Bft) NO 46 0 min 0,000 mm 0,0 UV-I 0 W/m -1,8 C -7,0 C 20,9 km/h (4 Bft) 100,00 %
15.12.2016 21:56 0,4 C 85 % 1029,5 hPa 0,0 l/m 23,2 km/h (4 Bft) NO 55 0 min 0,000 mm 0,0 UV-I 0 W/m -1,8 C -10,5 C 35,4 km/h (5 Bft) 100,00 %
15.12.2016 21:58 0,4 C 85 % 1029,5 hPa 0,0 l/m 14,7 km/h (3 Bft) N-NO 28 0 min 0,000 mm 0,0 UV-I 0 W/m -1,8 C -6,3 C 25,7 km/h (4 Bft) 98,11 %
15.12.2016 22:00 0,4 C 85 % 1029,5 hPa 0,0 l/m 10,8 km/h (2 Bft) NO 49 0 min 0,000 mm 0,0 UV-I 0 W/m -1,8 C -3,6 C 17,7 km/h (3 Bft) 100,00 %
15.12.2016 22:02 0,4 C 85 % 1029,5 hPa 0,0 l/m 17,2 km/h (3 Bft) N-NO 26 0 min 0,025 mm 0,0 UV-I 0 W/m -1,8 C -7,7 C 27,4 km/h (4 Bft) 100,00 %
15.12.2016 22:04 0,4 C 85 % 1029,6 hPa 0,0 l/m 13,9 km/h (3 Bft) NO 36 0 min 0,000 mm 0,0 UV-I 0 W/m -1,8 C -5,8 C 19,3 km/h (3 Bft) 100,00 %
15.12.2016 22:06 0,4 C 85 % 1029,6 hPa 0,0 l/m 19,0 km/h (3 Bft) NO 36 0 min 0,000 mm 0,0 UV-I 0 W/m -1,8 C -8,6 C 24,1 km/h (4 Bft) 100,00 %
15.12.2016 22:08 0,4 C 85 % 1029,5 hPa 0,0 l/m 14,7 km/h (3 Bft) NO 44 0 min 0,000 mm 0,0 UV-I 0 W/m -1,8 C -6,3 C 27,4 km/h (4 Bft) 100,00 %
15.12.2016 22:10 0,4 C 85 % 1029,6 hPa 0,0 l/m 16,4 km/h (3 Bft) NO 38 0 min 0,000 mm 0,0 UV-I 0 W/m -1,8 C -7,3 C 22,5 km/h (4 Bft) 100,00 %
15.12.2016 22:12 0,4 C 85 % 1029,6 hPa 0,0 l/m 17,2 km/h (3 Bft) N-NO 29 0 min 0,000 mm 0,0 UV-I 0 W/m -1,8 C -7,7 C 25,7 km/h (4 Bft) 100,00 %
15.12.2016 22:14 0,4 C 85 % 1029,5 hPa 0,0 l/m 15,7 km/h (3 Bft) NO 38 0 min 0,000 mm 0,0 UV-I 0 W/m -1,8 C -6,9 C 25,7 km/h (4 Bft) 100,00 %
15.12.2016 22:16 0,4 C 85 % 1029,6 hPa 0,0 l/m 14,3 km/h (3 Bft) N-NO 33 0 min 0,000 mm 0,0 UV-I 0 W/m -1,8 C -6,1 C 20,9 km/h (4 Bft) 97,56 %
15.12.2016 22:18 0,4 C 85 % 1029,6 hPa 0,0 l/m 17,7 km/h (3 Bft) NO 44 0 min 0,000 mm 0,0 UV-I 0 W/m -1,8 C -8,0 C 22,5 km/h (4 Bft) 100,00 %
15.12.2016 22:20 0,4 C 85 % 1029,6 hPa 0,0 l/m 19,6 km/h (3 Bft) NO 38 0 min 0,000 mm 0,0 UV-I 0 W/m -1,8 C -8,9 C 27,4 km/h (4 Bft) 100,00 %
15.12.2016 22:22 0,4 C 85 % 1029,6 hPa 0,0 l/m 14,8 km/h (3 Bft) N-NO 29 0 min 0,000 mm 0,0 UV-I 0 W/m -1,8 C -6,4 C 20,9 km/h (4 Bft) 100,00 %
15.12.2016 22:24 0,4 C 85 % 1029,7 hPa 0,0 l/m 18,5 km/h (3 Bft) N-NO 32 0 min 0,000 mm 0,0 UV-I 0 W/m -1,8 C -8,4 C 29,0 km/h (5 Bft) 100,00 %
15.12.2016 22:26 0,4 C 84 % 1029,7 hPa 0,0 l/m 18,0 km/h (3 Bft) NO 43 0 min 0,000 mm 0,0 UV-I 0 W/m -2,0 C -8,1 C 24,1 km/h (4 Bft) 94,74 %
15.12.2016 22:28 0,4 C 85 % 1029,7 hPa 0,0 l/m 18,1 km/h (3 Bft) NO 46 0 min 0,000 mm 0,0 UV-I 0 W/m -1,8 C -8,2 C 29,0 km/h (5 Bft) 98,11 %
15.12.2016 22:30 0,4 C 85 % 1029,7 hPa 0,0 l/m 16,6 km/h (3 Bft) NO 48 0 min 0,000 mm 0,0 UV-I 0 W/m -1,8 C -7,4 C 27,4 km/h (4 Bft) 100,00 %
15.12.2016 22:32 0,4 C 85 % 1029,7 hPa 0,0 l/m 19,7 km/h (3 Bft) N-NO 19 0 min 0,000 mm 0,0 UV-I 0 W/m -1,8 C -9,0 C 25,7 km/h (4 Bft) 100,00 %
15.12.2016 22:34 0,4 C 85 % 1029,7 hPa 0,0 l/m 17,1 km/h (3 Bft) N-NO 17 0 min 0,000 mm 0,0 UV-I 0 W/m -1,8 C -7,7 C 24,1 km/h (4 Bft) 100,00 %
15.12.2016 22:36 0,4 C 85 % 1029,7 hPa 0,0 l/m 17,0 km/h (3 Bft) O-NO 67 0 min 0,000 mm 0,0 UV-I 0 W/m -1,8 C -7,6 C 20,9 km/h (4 Bft) 100,00 %
15.12.2016 22:38 0,4 C 85 % 1029,7 hPa 0,0 l/m 19,9 km/h (4 Bft) NO 42 0 min 0,000 mm 0,0 UV-I 0 W/m -1,8 C -9,1 C 27,4 km/h (4 Bft) 100,00 %
15.12.2016 22:40 0,3 C 85 % 1029,8 hPa 0,0 l/m 16,0 km/h (3 Bft) NO 44 0 min 0,000 mm 0,0 UV-I 0 W/m -1,9 C -7,2 C 20,9 km/h (4 Bft) 100,00 %
15.12.2016 22:42 0,3 C 85 % 1029,8 hPa 0,0 l/m 12,5 km/h (3 Bft) NO 43 0 min 0,000 mm 0,0 UV-I 0 W/m -1,9 C -5,0 C 17,7 km/h (3 Bft) 97,87 %
15.12.2016 22:44 0,3 C 85 % 1029,7 hPa 0,0 l/m 12,5 km/h (3 Bft) NO 44 0 min 0,000 mm 0,0 UV-I 0 W/m -1,9 C -5,0 C 19,3 km/h (3 Bft) 100,00 %
15.12.2016 22:46 0,3 C 85 % 1029,7 hPa 0,0 l/m 13,6 km/h (3 Bft) N-NO 29 0 min 0,000 mm 0,0 UV-I 0 W/m -1,9 C -5,7 C 19,3 km/h (3 Bft) 100,00 %
15.12.2016 22:48 0,3 C 85 % 1029,8 hPa 0,0 l/m 16,0 km/h (3 Bft) NO 34 0 min 0,000 mm 0,0 UV-I 0 W/m -1,9 C -7,2 C 24,1 km/h (4 Bft) 100,00 %
15.12.2016 22:50 0,3 C 85 % 1029,8 hPa 0,0 l/m 14,9 km/h (3 Bft) N-NO 27 0 min 0,000 mm 0,0 UV-I 0 W/m -1,9 C -6,6 C 24,1 km/h (4 Bft) 100,00 %
15.12.2016 22:52 0,3 C 85 % 1029,7 hPa 0,0 l/m 17,6 km/h (3 Bft) NO 35 0 min 0,000 mm 0,0 UV-I 0 W/m -1,9 C -8,1 C 24,1 km/h (4 Bft) 100,00 %
15.12.2016 22:54 0,3 C 85 % 1029,7 hPa 0,0 l/m 14,7 km/h (3 Bft) NO 40 0 min 0,000 mm 0,0 UV-I 0 W/m -1,9 C -6,4 C 20,9 km/h (4 Bft) 100,00 %
15.12.2016 22:56 0,3 C 85 % 1029,7 hPa 0,0 l/m 16,0 km/h (3 Bft) NO 43 0 min 0,000 mm 0,0 UV-I 0 W/m -1,9 C -7,2 C 24,1 km/h (4 Bft) 100,00 %
15.12.2016 22:58 0,3 C 85 % 1029,8 hPa 0,0 l/m 16,8 km/h (3 Bft) NO 48 0 min 0,000 mm 0,0 UV-I 0 W/m -1,9 C -7,6 C 25,7 km/h (4 Bft) 100,00 %
15.12.2016 23:00 0,3 C 85 % 1029,7 hPa 0,0 l/m 17,4 km/h (3 Bft) NO 43 0 min 0,000 mm 0,0 UV-I 0 W/m -1,9 C -8,0 C 22,5 km/h (4 Bft) 97,37 %
15.12.2016 23:02 0,3 C 85 % 1029,8 hPa 0,0 l/m 17,3 km/h (3 Bft) NO 44 0 min 0,025 mm 0,0 UV-I 0 W/m -1,9 C -7,9 C 25,7 km/h (4 Bft) 100,00 %
15.12.2016 23:04 0,3 C 85 % 1029,8 hPa 0,0 l/m 17,1 km/h (3 Bft) NO 41 0 min 0,000 mm 0,0 UV-I 0 W/m -1,9 C -7,8 C 29,0 km/h (5 Bft) 100,00 %
15.12.2016 23:06 0,3 C 85 % 1029,7 hPa 0,0 l/m 18,3 km/h (3 Bft) NO 34 0 min 0,000 mm 0,0 UV-I 0 W/m -1,9 C -8,4 C 24,1 km/h (4 Bft) 98,00 %
15.12.2016 23:08 0,3 C 85 % 1029,8 hPa 0,0 l/m 18,5 km/h (3 Bft) NO 47 0 min 0,000 mm 0,0 UV-I 0 W/m -1,9 C -8,5 C 25,7 km/h (4 Bft) 96,00 %
15.12.2016 23:10 0,3 C 85 % 1029,8 hPa 0,0 l/m 13,7 km/h (3 Bft) N-NO 30 0 min 0,000 mm 0,0 UV-I 0 W/m -1,9 C -5,8 C 19,3 km/h (3 Bft) 100,00 %
15.12.2016 23:12 0,3 C 85 % 1029,8 hPa 0,0 l/m 19,1 km/h (3 Bft) NO 44 0 min 0,000 mm 0,0 UV-I 0 W/m -1,9 C -8,8 C 25,7 km/h (4 Bft) 97,73 %
15.12.2016 23:14 0,3 C 85 % 1029,8 hPa 0,0 l/m 17,8 km/h (3 Bft) NO 39 0 min 0,000 mm 0,0 UV-I 0 W/m -1,9 C -8,2 C 25,7 km/h (4 Bft) 98,11 %
15.12.2016 23:16 0,3 C 85 % 1029,8 hPa 0,0 l/m 19,0 km/h (3 Bft) N-NO 30 0 min 0,000 mm 0,0 UV-I 0 W/m -1,9 C -8,8 C 29,0 km/h (5 Bft) 95,12 %
15.12.2016 23:18 0,3 C 85 % 1029,8 hPa 0,0 l/m 16,5 km/h (3 Bft) N-NO 26 0 min 0,000 mm 0,0 UV-I 0 W/m -1,9 C -7,5 C 24,1 km/h (4 Bft) 98,21 %
15.12.2016 23:20 0,3 C 85 % 1029,8 hPa 0,0 l/m 20,4 km/h (4 Bft) NO 36 0 min 0,000 mm 0,0 UV-I 0 W/m -1,9 C -9,4 C 25,7 km/h (4 Bft) 95,12 %
15.12.2016 23:22 0,3 C 85 % 1029,8 hPa 0,0 l/m 13,8 km/h (3 Bft) N-NO 20 0 min 0,000 mm 0,0 UV-I 0 W/m -1,9 C -5,9 C 19,3 km/h (3 Bft) 96,43 %
15.12.2016 23:24 0,3 C 85 % 1029,7 hPa 0,0 l/m 18,5 km/h (3 Bft) NO 40 0 min 0,000 mm 0,0 UV-I 0 W/m -1,9 C -8,5 C 24,1 km/h (4 Bft) 97,56 %
15.12.2016 23:26 0,3 C 85 % 1029,8 hPa 0,0 l/m 15,8 km/h (3 Bft) O-NO 67 0 min 0,000 mm 0,0 UV-I 0 W/m -1,9 C -7,1 C 20,9 km/h (4 Bft) 98,00 %
15.12.2016 23:28 0,3 C 85 % 1029,8 hPa 0,0 l/m 15,7 km/h (3 Bft) NO 37 0 min 0,000 mm 0,0 UV-I 0 W/m -1,9 C -7,0 C 22,5 km/h (4 Bft) 97,37 %
15.12.2016 23:30 0,3 C 85 % 1029,8 hPa 0,0 l/m 15,8 km/h (3 Bft) NO 39 0 min 0,000 mm 0,0 UV-I 0 W/m -1,9 C -7,1 C 20,9 km/h (4 Bft) 98,11 %
15.12.2016 23:32 0,3 C 85 % 1029,8 hPa 0,0 l/m 17,3 km/h (3 Bft) NO 40 0 min 0,000 mm 0,0 UV-I 0 W/m -1,9 C -7,9 C 24,1 km/h (4 Bft) 98,00 %
15.12.2016 23:34 0,3 C 86 % 1029,7 hPa 0,0 l/m 14,8 km/h (3 Bft) NO 46 0 min 0,000 mm 0,0 UV-I 0 W/m -1,8 C -6,5 C 20,9 km/h (4 Bft) 92,68 %
15.12.2016 23:36 0,4 C 86 % 1029,7 hPa 0,0 l/m 18,4 km/h (3 Bft) NO 46 0 min 0,000 mm 0,0 UV-I 0 W/m -1,7 C -8,3 C 24,1 km/h (4 Bft) 98,00 %
15.12.2016 23:38 0,3 C 86 % 1029,7 hPa 0,0 l/m 19,8 km/h (3 Bft) NO 51 0 min 0,000 mm 0,0 UV-I 0 W/m -1,8 C -9,2 C 25,7 km/h (4 Bft) 97,78 %
15.12.2016 23:40 0,3 C 86 % 1029,8 hPa 0,0 l/m 20,2 km/h (4 Bft) NO 44 0 min 0,000 mm 0,0 UV-I 0 W/m -1,8 C -9,3 C 29,0 km/h (5 Bft) 96,15 %
15.12.2016 23:42 0,3 C 85 % 1029,8 hPa 0,0 l/m 18,3 km/h (3 Bft) NO 49 0 min 0,000 mm 0,0 UV-I 0 W/m -1,9 C -8,4 C 24,1 km/h (4 Bft) 97,44 %
15.12.2016 23:44 0,4 C 85 % 1029,7 hPa 0,0 l/m 15,5 km/h (3 Bft) N-NO 22 0 min 0,000 mm 0,0 UV-I 0 W/m -1,8 C -6,8 C 24,1 km/h (4 Bft) 97,73 %
15.12.2016 23:46 0,4 C 85 % 1029,8 hPa 0,0 l/m 16,4 km/h (3 Bft) NO 50 0 min 0,000 mm 0,0 UV-I 0 W/m -1,8 C -7,3 C 24,1 km/h (4 Bft) 98,21 %
15.12.2016 23:48 0,4 C 85 % 1029,7 hPa 0,0 l/m 23,1 km/h (4 Bft) O-NO 64 0 min 0,000 mm 0,0 UV-I 0 W/m -1,8 C -10,4 C 30,6 km/h (5 Bft) 97,56 %
15.12.2016 23:50 0,4 C 85 % 1029,7 hPa 0,0 l/m 15,1 km/h (3 Bft) NO 41 0 min 0,000 mm 0,0 UV-I 0 W/m -1,8 C -6,6 C 22,5 km/h (4 Bft) 100,00 %
15.12.2016 23:52 0,4 C 85 % 1029,7 hPa 0,0 l/m 17,6 km/h (3 Bft) O 84 0 min 0,000 mm 0,0 UV-I 0 W/m -1,8 C -7,9 C 24,1 km/h (4 Bft) 100,00 %
15.12.2016 23:54 0,4 C 85 % 1029,7 hPa 0,0 l/m 17,2 km/h (3 Bft) N-NO 32 0 min 0,000 mm 0,0 UV-I 0 W/m -1,8 C -7,7 C 25,7 km/h (4 Bft) 95,74 %
15.12.2016 23:56 0,4 C 85 % 1029,8 hPa 0,0 l/m 18,4 km/h (3 Bft) NO 46 0 min 0,000 mm 0,0 UV-I 0 W/m -1,8 C -8,3 C 25,7 km/h (4 Bft) 100,00 %
15.12.2016 23:58 0,4 C 86 % 1029,8 hPa 0,0 l/m 15,7 km/h (3 Bft) NO 47 0 min 0,000 mm 0,0 UV-I 0 W/m -1,7 C -6,9 C 19,3 km/h (3 Bft) 100,00 %
_ Min-Zeit 22:38 22:26 00:00 - 00:38 - - - - - - 22:26 20:02 00:38 16:04
Minimum _ 0,3 C 84 % 1027,6 hPa - 0,0 km/h (0 Bft) - - - - - - -2,0 C -11,3 C 0,0 km/h (0 Bft) 92,31 %
_ Max-Zeit 13:20 11:06 22:40 00:00 20:02 - - 11:44 13:00 12:06 12:10 12:10 00:00 19:32 00:06
Maximum _ 4,3 C 99 % 1029,8 hPa 0,0 l/m 27,4 km/h
NO (4 Bft)
- - 2 min 0,101 mm 0,5 UV-I 374 W/m 2,9 C 3,1 C 41,8 km/h
NO (6 Bft)
100,00 %
Durchschnitt _ 2,3 C 93 % 1028,6 hPa #0,0 l/m 11,1 km/h (2 Bft) O-NO - #1:52 h #0,533 mm 0,4 UV-I 89 W/m 1,2 C -2,3 C 16,1 km/h (3 Bft) 98,60 %